Air Quality Table

TIMESTAMP NO2 SO2 O3 PM10 PM2.5 CO TEMP HUM WS WD NO
2021-06-18 13:00 0.39 ug/m3 0.19 ug/m3 87.45 ug/m3 21.6 ug/m3 15.1 ug/m3 0.12 mg/m3 22.84 C 78.5 % 5.21 m/s 215.35 Deg 0.03 ug/m3
2021-06-18 12:00 1.34 ug/m3 0.4 ug/m3 95.14 ug/m3 21.05 ug/m3 13.93 ug/m3 0.13 mg/m3 23.7 C 72.73 % 4.6 m/s 204.56 Deg 0.16 ug/m3
2021-06-18 11:00 1.37 ug/m3 0.49 ug/m3 101.68 ug/m3 15.98 ug/m3 12.9 ug/m3 0.13 mg/m3 24.32 C 70.4 % 1.84 m/s 226.61 Deg 0.11 ug/m3
2021-06-18 10:00 1.03 ug/m3 0.33 ug/m3 97.57 ug/m3 16.05 ug/m3 12.05 ug/m3 0.13 mg/m3 23.59 C 72.49 % 2.51 m/s 12.77 Deg 0.09 ug/m3
2021-06-18 09:00 1.45 ug/m3 0.37 ug/m3 96.35 ug/m3 20.93 ug/m3 12.7 ug/m3 0.13 mg/m3 23.57 C 70.95 % 2.06 m/s 164.63 Deg 0.15 ug/m3
2021-06-18 08:00 3.65 ug/m3 0.39 ug/m3 91.91 ug/m3 20.6 ug/m3 10.45 ug/m3 0.14 mg/m3 23.09 C 73.31 % 1.25 m/s 156.2 Deg 0.47 ug/m3
2021-06-18 07:00 4.05 ug/m3 0.24 ug/m3 87.31 ug/m3 17.15 ug/m3 12 ug/m3 0.14 mg/m3 21.64 C 80.46 % 1.6 m/s 109.91 Deg 0.4 ug/m3
2021-06-18 06:00 1.33 ug/m3 0.05 ug/m3 92.05 ug/m3 17.63 ug/m3 13.93 ug/m3 0.13 mg/m3 20.83 C 83.82 % 0.63 m/s 85.59 Deg 0.06 ug/m3
2021-06-18 05:00 2.01 ug/m3 0.07 ug/m3 87.89 ug/m3 17.88 ug/m3 11.6 ug/m3 0.13 mg/m3 20.71 C 83.1 % 1.22 m/s 110.05 Deg 0.02 ug/m3
2021-06-18 04:00 2.4 ug/m3 0.15 ug/m3 88.73 ug/m3 22.15 ug/m3 10.48 ug/m3 0.14 mg/m3 20.88 C 81.01 % 0.67 m/s 85.34 Deg 0.02 ug/m3
2021-06-18 03:00 2.19 ug/m3 0.06 ug/m3 89.15 ug/m3 16.78 ug/m3 8.53 ug/m3 0.13 mg/m3 20.91 C 80.65 % 1.03 m/s 283.78 Deg 0.02 ug/m3
2021-06-18 02:00 1.6 ug/m3 0.07 ug/m3 86.73 ug/m3 20.05 ug/m3 13.45 ug/m3 0.12 mg/m3 21.07 C 80.21 % 1.87 m/s 151.02 Deg 0.01 ug/m3
2021-06-18 01:00 2 ug/m3 0.09 ug/m3 86.72 ug/m3 14 ug/m3 12.6 ug/m3 0.14 mg/m3 21.22 C 79.14 % 1.34 m/s 164.13 Deg 0.01 ug/m3
2021-06-18 00:00 1.64 ug/m3 0.07 ug/m3 90.26 ug/m3 13.48 ug/m3 17.78 ug/m3 0.14 mg/m3 21.27 C 79.27 % 3.2 m/s 111.93 Deg 0.01 ug/m3
2021-06-17 23:00 1.02 ug/m3 0.07 ug/m3 92.61 ug/m3 13.08 ug/m3 11.7 ug/m3 0.14 mg/m3 21.27 C 80.44 % 3.11 m/s 157.42 Deg 0.01 ug/m3
2021-06-17 22:00 0.82 ug/m3 0.12 ug/m3 92.61 ug/m3 11.43 ug/m3 8.8 ug/m3 0.14 mg/m3 21.15 C 80.65 % 1.48 m/s 141.14 Deg 0.01 ug/m3
2021-06-17 21:00 0.72 ug/m3 0.07 ug/m3 89.52 ug/m3 10.77 ug/m3 11.97 ug/m3 0.13 mg/m3 21.2 C 80.12 % 2.46 m/s 192.25 Deg 0.01 ug/m3
2021-06-17 20:00 0.78 ug/m3 0.11 ug/m3 95.88 ug/m3 13.5 ug/m3 12.27 ug/m3 0.13 mg/m3 21.47 C 78.25 % 2.8 m/s 200.94 Deg 0.01 ug/m3
2021-06-17 19:00 0.9 ug/m3 0.17 ug/m3 99.07 ug/m3 6.8 ug/m3 11 ug/m3 0.13 mg/m3 21.96 C 75.44 % 3.64 m/s 186.79 Deg 0.01 ug/m3
2021-06-17 18:00 1.14 ug/m3 0.29 ug/m3 99.9 ug/m3 11.98 ug/m3 9.68 ug/m3 0.13 mg/m3 22.51 C 72.83 % 5 m/s 205.59 Deg 0.08 ug/m3
2021-06-17 17:00 0.58 ug/m3 0.3 ug/m3 98.58 ug/m3 18.13 ug/m3 12.15 ug/m3 0.13 mg/m3 22.89 C 70.73 % 5.33 m/s 208.94 Deg 0.03 ug/m3
2021-06-17 16:00 0.54 ug/m3 0.31 ug/m3 99.23 ug/m3 13.53 ug/m3 14.23 ug/m3 0.13 mg/m3 22.93 C 71.61 % 5.62 m/s 213.04 Deg 0.02 ug/m3
2021-06-17 15:00 0.56 ug/m3 0.35 ug/m3 98.12 ug/m3 13.63 ug/m3 12.73 ug/m3 0.13 mg/m3 23.23 C 71.72 % 5.35 m/s 206.89 Deg 0.03 ug/m3
2021-06-17 14:00 0.56 ug/m3 0.38 ug/m3 100.69 ug/m3 20.6 ug/m3 13 ug/m3 0.13 mg/m3 23.07 C 71.47 % 6 m/s 213.13 Deg 0.03 ug/m3
2021-06-17 13:00 0.59 ug/m3 0.36 ug/m3 98.56 ug/m3 5.68 ug/m3 3.33 ug/m3 0.13 mg/m3 23.08 C 72.94 % 5.52 m/s 209.23 Deg 0.05 ug/m3
2021-06-17 12:00 0.72 ug/m3 0.45 ug/m3 102.68 ug/m3 0 ug/m3 0 ug/m3 0.13 mg/m3 23.24 C 67.94 % 5.13 m/s 201.44 Deg 0.06 ug/m3
2021-06-17 11:00 0.69 ug/m3 0.46 ug/m3 104.91 ug/m3 0 ug/m3 0 ug/m3 0.15 mg/m3 22.98 C 70.38 % 4.89 m/s 203 Deg 0.05 ug/m3
2021-06-17 10:00 0.85 ug/m3 0.4 ug/m3 106.78 ug/m3 0 ug/m3 10.73 ug/m3 0.14 mg/m3 22.69 C 71.37 % 4.83 m/s 204.56 Deg 0.08 ug/m3
2021-06-17 09:00 1.43 ug/m3 0.43 ug/m3 105.6 ug/m3 0 ug/m3 3.58 ug/m3 0.13 mg/m3 22.86 C 68.02 % 3.59 m/s 170.37 Deg 0.13 ug/m3
2021-06-17 08:00 2.02 ug/m3 0.39 ug/m3 99.25 ug/m3 0 ug/m3 0 ug/m3 0.14 mg/m3 22.44 C 69.72 % 2.61 m/s 155.03 Deg 0.22 ug/m3
2021-06-17 07:00 2.53 ug/m3 0.24 ug/m3 91.53 ug/m3 18.9 ug/m3 10.43 ug/m3 0.14 mg/m3 21.35 C 83.43 % 1.98 m/s 141.11 Deg 0.23 ug/m3
2021-06-17 06:00 2.67 ug/m3 0.19 ug/m3 91.57 ug/m3 23.78 ug/m3 14.28 ug/m3 0.14 mg/m3 20.27 C 89 % 1.08 m/s 148 Deg 0.09 ug/m3
2021-06-17 05:00 1.6 ug/m3 0.19 ug/m3 96.98 ug/m3 20.6 ug/m3 14.8 ug/m3 0.13 mg/m3 19.85 C 89.1 % 0.86 m/s 121.26 Deg 0.01 ug/m3
2021-06-17 04:00 2.17 ug/m3 0.26 ug/m3 96.03 ug/m3 19.18 ug/m3 16.3 ug/m3 0.13 mg/m3 20 C 87.77 % 0.88 m/s 161.31 Deg 0.02 ug/m3
2021-06-17 03:00 4.75 ug/m3 0.31 ug/m3 87.2 ug/m3 25.08 ug/m3 13.5 ug/m3 0.13 mg/m3 20.1 C 86.06 % 1.8 m/s 166.09 Deg 0.01 ug/m3
2021-06-17 02:00 1.88 ug/m3 0.14 ug/m3 92.56 ug/m3 25.47 ug/m3 11.27 ug/m3 0.11 mg/m3 20.41 C 83.36 % 2.08 m/s 162.24 Deg 0.01 ug/m3
2021-06-17 01:00 0.63 ug/m3 0.08 ug/m3 92.98 ug/m3 11.9 ug/m3 10.2 ug/m3 0.12 mg/m3 20.71 C 80.69 % 2.6 m/s 185.05 Deg 0.02 ug/m3
2021-06-17 00:00 0.7 ug/m3 0.12 ug/m3 95.76 ug/m3 19.4 ug/m3 9.68 ug/m3 0.12 mg/m3 20.89 C 80.4 % 3.55 m/s 188.14 Deg 0.02 ug/m3
2021-06-16 23:00 0.71 ug/m3 0.06 ug/m3 91.61 ug/m3 13.5 ug/m3 9.65 ug/m3 0.12 mg/m3 20.89 C 79.17 % 2.99 m/s 192.43 Deg 0.03 ug/m3
2021-06-16 22:00 1.41 ug/m3 0.09 ug/m3 92.69 ug/m3 19.93 ug/m3 10.15 ug/m3 0.14 mg/m3 21.18 C 76 % 4.16 m/s 185.96 Deg 0.06 ug/m3
2021-06-16 21:00 1.74 ug/m3 0.09 ug/m3 92.57 ug/m3 22.4 ug/m3 14.43 ug/m3 0.13 mg/m3 21.47 C 74.15 % 4.77 m/s 179.57 Deg 0.08 ug/m3
2021-06-16 20:00 2.56 ug/m3 0.15 ug/m3 90.95 ug/m3 30.23 ug/m3 19.4 ug/m3 0.15 mg/m3 21.76 C 74.76 % 5.03 m/s 187.03 Deg 0.17 ug/m3
2021-06-16 19:00 2.14 ug/m3 0.43 ug/m3 91.31 ug/m3 26.23 ug/m3 15.58 ug/m3 0.14 mg/m3 22.32 C 72.26 % 5.98 m/s 186.13 Deg 0.21 ug/m3
2021-06-16 18:00 2.37 ug/m3 0.43 ug/m3 93.88 ug/m3 11.78 ug/m3 13 ug/m3 0.12 mg/m3 22.78 C 68.55 % 6.2 m/s 183.93 Deg 0.3 ug/m3
2021-06-16 17:00 1.19 ug/m3 0.26 ug/m3 94.75 ug/m3 4.18 ug/m3 10.98 ug/m3 0.11 mg/m3 23.38 C 61.58 % 5.65 m/s 196.1 Deg 0.05 ug/m3
2021-06-16 16:00 1.35 ug/m3 0.28 ug/m3 98.02 ug/m3 15.23 ug/m3 10.55 ug/m3 0.11 mg/m3 23.82 C 53.21 % 4.57 m/s 210.17 Deg 0.04 ug/m3
2021-06-16 15:00 1.47 ug/m3 0.33 ug/m3 101.76 ug/m3 -9.73 ug/m3 11.8 ug/m3 0.11 mg/m3 23.98 C 53.05 % 3.98 m/s 227.26 Deg 0.07 ug/m3
2021-06-16 14:00 1.85 ug/m3 0.41 ug/m3 107.65 ug/m3 25.83 ug/m3 11.83 ug/m3 0.11 mg/m3 23.82 C 53.86 % 3.94 m/s 221.04 Deg 0.13 ug/m3
2021-06-16 13:00 1.89 ug/m3 0.45 ug/m3 106.59 ug/m3 13.68 ug/m3 13.28 ug/m3 0.11 mg/m3 23.44 C 58.98 % 3.45 m/s 221.82 Deg 0.13 ug/m3
2021-06-16 12:00 1.72 ug/m3 0.45 ug/m3 104.71 ug/m3 5.88 ug/m3 13.8 ug/m3 0.11 mg/m3 23.38 C 55.15 % 2.72 m/s 229.39 Deg 0.08 ug/m3
2021-06-16 11:00 1.76 ug/m3 0.63 ug/m3 105.97 ug/m3 34.43 ug/m3 10.28 ug/m3 0.12 mg/m3 23.16 C 64.56 % 1.85 m/s 296.23 Deg 0.11 ug/m3
2021-06-16 10:00 1.78 ug/m3 0.57 ug/m3 102.3 ug/m3 22.28 ug/m3 12.18 ug/m3 0.11 mg/m3 23.02 C 56.54 % 2.24 m/s 249.06 Deg 0.09 ug/m3
2021-06-16 09:00 2.52 ug/m3 0.66 ug/m3 98.56 ug/m3 18.25 ug/m3 15.75 ug/m3 0.12 mg/m3 22.67 C 66.97 % 1.84 m/s 226.54 Deg 0.27 ug/m3
2021-06-16 08:00 6 ug/m3 0.89 ug/m3 93.5 ug/m3 20.58 ug/m3 15.18 ug/m3 0.13 mg/m3 22.43 C 65.16 % 1.6 m/s 165.1 Deg 0.8 ug/m3
2021-06-16 07:00 8.6 ug/m3 0.82 ug/m3 85.49 ug/m3 21.3 ug/m3 16.73 ug/m3 0.12 mg/m3 21.34 C 74.57 % 1.59 m/s 101.48 Deg 0.91 ug/m3
2021-06-16 06:00 9.62 ug/m3 0.47 ug/m3 78.13 ug/m3 18.25 ug/m3 14.4 ug/m3 0.13 mg/m3 19.95 C 79.78 % 1.75 m/s 107.04 Deg 0.47 ug/m3
2021-06-16 05:00 5.64 ug/m3 0.38 ug/m3 86.27 ug/m3 22.68 ug/m3 15.58 ug/m3 0.12 mg/m3 19.85 C 79.42 % 1.69 m/s 119.74 Deg 0.02 ug/m3
2021-06-16 04:00 7.52 ug/m3 0.6 ug/m3 79.44 ug/m3 22.85 ug/m3 13.38 ug/m3 0.12 mg/m3 19.75 C 79.28 % 0.81 m/s 92.72 Deg 0.02 ug/m3
2021-06-16 03:00 8.92 ug/m3 0.41 ug/m3 73.14 ug/m3 18.33 ug/m3 12.85 ug/m3 0.12 mg/m3 19.72 C 79.07 % 1.31 m/s 95.74 Deg 0.03 ug/m3
2021-06-16 02:00 8.87 ug/m3 0.24 ug/m3 71.91 ug/m3 21.5 ug/m3 12.93 ug/m3 0.11 mg/m3 20 C 77.91 % 1.8 m/s 111 Deg 0.03 ug/m3
2021-06-16 01:00 6.42 ug/m3 0.2 ug/m3 79.66 ug/m3 24.4 ug/m3 -28.9 ug/m3 0.14 mg/m3 20.41 C 77.48 % 1.91 m/s 133.12 Deg 0.01 ug/m3
2021-06-16 00:00 5.05 ug/m3 0.23 ug/m3 84.8 ug/m3 23.58 ug/m3 3.88 ug/m3 0.14 mg/m3 20.55 C 75.81 % 1.15 m/s 111.37 Deg 0.02 ug/m3
2021-06-15 23:00 5.17 ug/m3 0.27 ug/m3 87.65 ug/m3 21.05 ug/m3 12.85 ug/m3 0.14 mg/m3 20.83 C 75.8 % 1.82 m/s 99.32 Deg 0.02 ug/m3
2021-06-15 22:00 4.73 ug/m3 0.38 ug/m3 92.18 ug/m3 22.48 ug/m3 14.75 ug/m3 0.14 mg/m3 21.22 C 73.73 % 4.91 m/s 115.47 Deg 0.02 ug/m3
2021-06-15 21:00 6.85 ug/m3 0.61 ug/m3 95.87 ug/m3 21.78 ug/m3 14.1 ug/m3 0.14 mg/m3 21.51 C 69.61 % 5.86 m/s 115.38 Deg 0.01 ug/m3
2021-06-15 20:00 3.96 ug/m3 0.72 ug/m3 100.54 ug/m3 23.18 ug/m3 15.25 ug/m3 0.13 mg/m3 21.81 C 65.4 % 6.14 m/s 110.05 Deg 0.03 ug/m3
2021-06-15 19:00 3.25 ug/m3 0.81 ug/m3 102.94 ug/m3 27.1 ug/m3 15.8 ug/m3 0.13 mg/m3 22.61 C 63.15 % 5.86 m/s 106.26 Deg 0.07 ug/m3
2021-06-15 18:00 3.62 ug/m3 0.88 ug/m3 102.06 ug/m3 28.13 ug/m3 20.15 ug/m3 0.14 mg/m3 23.08 C 67.03 % 6.4 m/s 100.33 Deg 0.27 ug/m3
2021-06-15 17:00 1.91 ug/m3 0.97 ug/m3 104.72 ug/m3 34.7 ug/m3 18.75 ug/m3 0.16 mg/m3 23.39 C 70.51 % 6.84 m/s 92 Deg 0.13 ug/m3
2021-06-15 16:00 2.6 ug/m3 1.24 ug/m3 106.13 ug/m3 34.2 ug/m3 18.48 ug/m3 0.17 mg/m3 23.78 C 71.06 % 6.93 m/s 82.89 Deg 0.25 ug/m3
2021-06-15 15:00 1.64 ug/m3 1.1 ug/m3 109.3 ug/m3 24.08 ug/m3 18.18 ug/m3 0.14 mg/m3 24.5 C 69.32 % 6.87 m/s 87.56 Deg 0.13 ug/m3
2021-06-15 14:00 1.73 ug/m3 1.28 ug/m3 112.77 ug/m3 19.88 ug/m3 16.88 ug/m3 0.15 mg/m3 24.77 C 67.54 % 6.03 m/s 91.75 Deg 0.17 ug/m3
2021-06-15 13:00 2.09 ug/m3 1.25 ug/m3 116.91 ug/m3 29.93 ug/m3 17.25 ug/m3 0.15 mg/m3 23.8 C 75.08 % 6.89 m/s 73.27 Deg 0.21 ug/m3
2021-06-15 12:00 3.43 ug/m3 1.98 ug/m3 134.49 ug/m3 27.63 ug/m3 23.88 ug/m3 0.16 mg/m3 23.77 C 73.74 % 6.73 m/s 56.26 Deg 0.19 ug/m3
2021-06-15 11:00 4.39 ug/m3 1.44 ug/m3 130 ug/m3 13.1 ug/m3 24.58 ug/m3 0.18 mg/m3 23.11 C 78.52 % 5.17 m/s 24.11 Deg 0.42 ug/m3
2021-06-15 10:00 3.73 ug/m3 0.86 ug/m3 122.23 ug/m3 9.2 ug/m3 17.95 ug/m3 0.17 mg/m3 22.78 C 88.08 % 4.76 m/s 20.21 Deg 0.43 ug/m3
2021-06-15 09:00 2.99 ug/m3 0.6 ug/m3 116.55 ug/m3 8.7 ug/m3 14.48 ug/m3 0.15 mg/m3 22.05 C 91.91 % 4.43 m/s 16.76 Deg 0.4 ug/m3
2021-06-15 08:00 4.69 ug/m3 0.56 ug/m3 103.22 ug/m3 10.53 ug/m3 15.28 ug/m3 0.15 mg/m3 21.87 C 91.67 % 4.09 m/s 9.63 Deg 0.62 ug/m3
2021-06-15 07:00 8.32 ug/m3 0.52 ug/m3 92.33 ug/m3 14.5 ug/m3 15.25 ug/m3 0.15 mg/m3 21.5 C 93.4 % 4.23 m/s 304.82 Deg 0.82 ug/m3
2021-06-15 06:00 4.45 ug/m3 0.25 ug/m3 100.13 ug/m3 14.18 ug/m3 13.98 ug/m3 0.14 mg/m3 21.02 C 92.82 % 4.3 m/s 293.2 Deg 0.15 ug/m3
2021-06-15 05:00 1.99 ug/m3 0.14 ug/m3 109.4 ug/m3 12.05 ug/m3 11.58 ug/m3 0.14 mg/m3 21.08 C 91.97 % 5.62 m/s 264.88 Deg 0.02 ug/m3
2021-06-15 04:00 1.45 ug/m3 0.09 ug/m3 107.99 ug/m3 11.35 ug/m3 13.83 ug/m3 0.15 mg/m3 21.3 C 89.56 % 5.06 m/s 270.79 Deg 0.01 ug/m3
2021-06-15 03:00 1.18 ug/m3 -0.01 ug/m3 109.44 ug/m3 10.33 ug/m3 13.23 ug/m3 0.15 mg/m3 21.42 C 87.38 % 4.3 m/s 267.36 Deg 0.01 ug/m3
2021-06-15 02:00 0.57 ug/m3 0.01 ug/m3 108.83 ug/m3 14.05 ug/m3 12.85 ug/m3 0.13 mg/m3 21.39 C 88.65 % 3.84 m/s 251.97 Deg 0.01 ug/m3
2021-06-15 01:00 0.61 ug/m3 0.01 ug/m3 108.98 ug/m3 23.8 ug/m3 14.4 ug/m3 0.14 mg/m3 21.44 C 92.23 % 4.87 m/s 244.82 Deg 0.01 ug/m3
2021-06-15 00:00 0.48 ug/m3 -0.01 ug/m3 110.5 ug/m3 19.07 ug/m3 15.87 ug/m3 0.13 mg/m3 21.46 C 94.7 % 4.1 m/s 241.67 Deg 0 ug/m3
2021-06-14 23:00 2.51 ug/m3 0.17 ug/m3 115.78 ug/m3 13.25 ug/m3 14.28 ug/m3 0.14 mg/m3 21.58 C 90.97 % 2.9 m/s 245.41 Deg 0.01 ug/m3
2021-06-14 22:00 1.04 ug/m3 0.32 ug/m3 123.92 ug/m3 12.63 ug/m3 16.43 ug/m3 0.13 mg/m3 21.63 C 84.35 % 2.22 m/s 252.57 Deg 0.01 ug/m3
2021-06-14 21:00 1.51 ug/m3 0.38 ug/m3 124.03 ug/m3 13.7 ug/m3 19.05 ug/m3 0.15 mg/m3 21.75 C 87.7 % 2.71 m/s 244.13 Deg 0.01 ug/m3
2021-06-14 20:00 1.59 ug/m3 0.38 ug/m3 130.48 ug/m3 14.75 ug/m3 18.55 ug/m3 0.15 mg/m3 22.14 C 87.82 % 2.61 m/s 246.18 Deg 0.01 ug/m3
2021-06-14 19:00 1.29 ug/m3 0.55 ug/m3 135.73 ug/m3 17.63 ug/m3 18.95 ug/m3 0.14 mg/m3 23.14 C 74.39 % 2.16 m/s 248.78 Deg 0.03 ug/m3
2021-06-14 18:00 1.23 ug/m3 0.56 ug/m3 135.55 ug/m3 24.73 ug/m3 17.1 ug/m3 0.14 mg/m3 23.33 C 75.51 % 3 m/s 234.6 Deg 0.04 ug/m3
2021-06-14 17:00 2.06 ug/m3 0.54 ug/m3 129.16 ug/m3 22.75 ug/m3 18.58 ug/m3 0.14 mg/m3 24.22 C 72.67 % 4.18 m/s 214.54 Deg 0.1 ug/m3
2021-06-14 16:00 3.11 ug/m3 0.9 ug/m3 135.23 ug/m3 21.63 ug/m3 13.75 ug/m3 0.14 mg/m3 25.17 C 58.79 % 3.29 m/s 236.94 Deg 0.21 ug/m3
2021-06-14 15:00 2.47 ug/m3 0.54 ug/m3 127.21 ug/m3 25.38 ug/m3 12.43 ug/m3 0.13 mg/m3 25.98 C 51.04 % 2.17 m/s 152.41 Deg 0.08 ug/m3
2021-06-14 14:00 2.41 ug/m3 0.74 ug/m3 125.06 ug/m3 25.48 ug/m3 15.53 ug/m3 0.13 mg/m3 24.89 C 53.01 % 4.16 m/s 44.47 Deg 0.07 ug/m3
2021-06-14 13:00 2.91 ug/m3 0.76 ug/m3 121.97 ug/m3 21.58 ug/m3 17.93 ug/m3 0.13 mg/m3 24.71 C 53.58 % 4.66 m/s 42.67 Deg 0.21 ug/m3
2021-06-14 12:00 3.24 ug/m3 0.93 ug/m3 119.39 ug/m3 19.05 ug/m3 21.33 ug/m3 0.14 mg/m3 23.33 C 71.22 % 4.28 m/s 20.24 Deg 0.43 ug/m3
2021-06-14 11:00 2.87 ug/m3 0.56 ug/m3 114.41 ug/m3 17.1 ug/m3 22.38 ug/m3 0.15 mg/m3 22.45 C 86.42 % 3.75 m/s 193.72 Deg 0.38 ug/m3
2021-06-14 10:00 1.88 ug/m3 0.33 ug/m3 110 ug/m3 20.28 ug/m3 23 ug/m3 0.15 mg/m3 21.54 C 91.1 % 4.24 m/s 339.72 Deg 0.2 ug/m3
2021-06-14 09:00 1.37 ug/m3 0.16 ug/m3 108.43 ug/m3 23.6 ug/m3 19.98 ug/m3 0.15 mg/m3 20.65 C 95.4 % 3.79 m/s 323.15 Deg 0.14 ug/m3
2021-06-14 08:00 1.4 ug/m3 0.17 ug/m3 105.2 ug/m3 18.15 ug/m3 17.93 ug/m3 0.15 mg/m3 20.87 C 95.19 % 4.47 m/s 267.14 Deg 0.09 ug/m3
2021-06-14 07:00 0.96 ug/m3 0.13 ug/m3 107.31 ug/m3 16.93 ug/m3 18.13 ug/m3 0.15 mg/m3 20.82 C 94.52 % 5.58 m/s 246.71 Deg 0.05 ug/m3
2021-06-14 06:00 0.98 ug/m3 0.01 ug/m3 107.18 ug/m3 14.13 ug/m3 16.28 ug/m3 0.14 mg/m3 20.6 C 95.75 % 4.12 m/s 277.69 Deg 0.02 ug/m3
2021-06-14 05:00 1.08 ug/m3 0.07 ug/m3 111.82 ug/m3 18.28 ug/m3 17.63 ug/m3 0.14 mg/m3 20.44 C 91.94 % 3.88 m/s 273.94 Deg 0 ug/m3
2021-06-14 04:00 1.2 ug/m3 0.03 ug/m3 107.73 ug/m3 14.3 ug/m3 17.93 ug/m3 0.15 mg/m3 20.54 C 97.62 % 2.41 m/s 256.94 Deg 0 ug/m3
2021-06-14 03:00 2.09 ug/m3 0.03 ug/m3 105.72 ug/m3 14.8 ug/m3 17.95 ug/m3 0.14 mg/m3 20.72 C 95.73 % 2.07 m/s 232.03 Deg 0.01 ug/m3
2021-06-14 02:00 2.64 ug/m3 0.22 ug/m3 109.65 ug/m3 17.7 ug/m3 18.45 ug/m3 0.14 mg/m3 20.7 C 91.61 % 2.56 m/s 222.18 Deg 0.01 ug/m3
2021-06-14 01:00 2.43 ug/m3 0.27 ug/m3 117.12 ug/m3 17.7 ug/m3 15.5 ug/m3 0.15 mg/m3 20.81 C 89.45 % 2.67 m/s 224.74 Deg 0.01 ug/m3
2021-06-14 00:00 2.74 ug/m3 0.45 ug/m3 121.73 ug/m3 21.23 ug/m3 18.2 ug/m3 0.15 mg/m3 21.44 C 74.03 % 2.26 m/s 231.17 Deg 0.01 ug/m3
2021-06-13 23:00 2.74 ug/m3 0.45 ug/m3 119.34 ug/m3 22.25 ug/m3 20.23 ug/m3 0.15 mg/m3 21.01 C 82.51 % 1.85 m/s 251.5 Deg 0.01 ug/m3
2021-06-13 22:00 1.35 ug/m3 0.39 ug/m3 124.02 ug/m3 20.85 ug/m3 20.53 ug/m3 0.16 mg/m3 20.81 C 90.22 % 1.42 m/s 328.84 Deg 0.01 ug/m3
2021-06-13 21:00 0.96 ug/m3 0.35 ug/m3 124.8 ug/m3 23.48 ug/m3 22.15 ug/m3 0.16 mg/m3 20.94 C 90.03 % 1.91 m/s 330.26 Deg 0.01 ug/m3
2021-06-13 20:00 1.07 ug/m3 0.36 ug/m3 130.07 ug/m3 23.83 ug/m3 22.33 ug/m3 0.16 mg/m3 21.31 C 88.4 % 2.73 m/s 303.25 Deg 0.01 ug/m3
2021-06-13 19:00 1.24 ug/m3 0.38 ug/m3 135.02 ug/m3 16.78 ug/m3 21.23 ug/m3 0.16 mg/m3 21.85 C 85.18 % 3.25 m/s 269.38 Deg 0.02 ug/m3
2021-06-13 18:00 0.55 ug/m3 0.43 ug/m3 122.03 ug/m3 19.97 ug/m3 21.37 ug/m3 0.16 mg/m3 22.46 C 84.5 % 3.71 m/s 265.24 Deg 0.02 ug/m3
2021-06-13 17:00 0.71 ug/m3 0.59 ug/m3 122.21 ug/m3 18.43 ug/m3 21.47 ug/m3 0.16 mg/m3 22.88 C 84.04 % 3.96 m/s 248.52 Deg 0.02 ug/m3
2021-06-13 16:00 1.5 ug/m3 0.74 ug/m3 138.6 ug/m3 22.43 ug/m3 22.4 ug/m3 0.17 mg/m3 23.56 C 76.66 % 4.56 m/s 222.31 Deg 0.06 ug/m3
2021-06-13 15:00 1.87 ug/m3 1.32 ug/m3 139.78 ug/m3 21.08 ug/m3 19.9 ug/m3 0.17 mg/m3 24.04 C 72.23 % 3.62 m/s 201.03 Deg 0.08 ug/m3
2021-06-13 14:00 1.71 ug/m3 1.81 ug/m3 139.46 ug/m3 19.3 ug/m3 22.43 ug/m3 0.16 mg/m3 24.04 C 70.54 % 2.33 m/s 313.93 Deg 0.07 ug/m3
2021-06-13 13:00 2.05 ug/m3 1.49 ug/m3 136.9 ug/m3 24.45 ug/m3 22.33 ug/m3 0.16 mg/m3 24.09 C 70.94 % 2.55 m/s 273.3 Deg 0.13 ug/m3
2021-06-13 12:00 1.9 ug/m3 1.25 ug/m3 131.53 ug/m3 23.65 ug/m3 21.3 ug/m3 0.16 mg/m3 24.56 C 68.25 % 3.21 m/s 89.04 Deg 0.13 ug/m3
2021-06-13 11:00 1.76 ug/m3 0.58 ug/m3 119.23 ug/m3 17.03 ug/m3 22.68 ug/m3 0.16 mg/m3 23.75 C 76.68 % 2.85 m/s 73.17 Deg 0.13 ug/m3
2021-06-13 10:00 1.02 ug/m3 0.28 ug/m3 117.49 ug/m3 18.78 ug/m3 21.55 ug/m3 0.15 mg/m3 22.63 C 78.1 % 3.97 m/s 40.84 Deg 0.06 ug/m3
2021-06-13 09:00 0.94 ug/m3 0.15 ug/m3 116.3 ug/m3 26.15 ug/m3 20.78 ug/m3 0.15 mg/m3 21.51 C 86.65 % 3.87 m/s 38.25 Deg 0.08 ug/m3
2021-06-13 08:00 0.84 ug/m3 0.17 ug/m3 115.91 ug/m3 22.58 ug/m3 21.68 ug/m3 0.16 mg/m3 20.86 C 90.78 % 3.41 m/s 20.31 Deg 0.06 ug/m3
2021-06-13 07:00 3.04 ug/m3 0.23 ug/m3 111.62 ug/m3 22.05 ug/m3 22.38 ug/m3 0.15 mg/m3 20.68 C 91.84 % 0.9 m/s 196.38 Deg 0.21 ug/m3
2021-06-13 06:00 1.38 ug/m3 0.06 ug/m3 111.13 ug/m3 21.57 ug/m3 20.43 ug/m3 0.16 mg/m3 19.77 C 96.31 % 1.07 m/s 172.94 Deg 0.03 ug/m3
2021-06-13 05:00 1.02 ug/m3 0.02 ug/m3 106.75 ug/m3 20.95 ug/m3 17.08 ug/m3 0.16 mg/m3 19.72 C 97.24 % 0.99 m/s 148.79 Deg 0.01 ug/m3
2021-06-13 04:00 0.95 ug/m3 0.07 ug/m3 111.98 ug/m3 18.58 ug/m3 18.4 ug/m3 0.15 mg/m3 19.73 C 97.3 % 2.17 m/s 229.64 Deg 0 ug/m3
2021-06-13 03:00 1.38 ug/m3 0.03 ug/m3 110.2 ug/m3 17.43 ug/m3 21.5 ug/m3 0.15 mg/m3 19.81 C 98.6 % 1.42 m/s 252.29 Deg -0 ug/m3
2021-06-13 02:00 1.56 ug/m3 0.04 ug/m3 108.92 ug/m3 20.68 ug/m3 19.9 ug/m3 0.14 mg/m3 20.12 C 99.63 % 2.13 m/s 274.84 Deg 0.01 ug/m3
2021-06-13 01:00 1.42 ug/m3 0.09 ug/m3 111.99 ug/m3 21.3 ug/m3 20.4 ug/m3 0.15 mg/m3 20.26 C 99.49 % 2.76 m/s 254.04 Deg 0.02 ug/m3
2021-06-13 00:00 1.97 ug/m3 0.05 ug/m3 109.92 ug/m3 12.53 ug/m3 18.3 ug/m3 0.15 mg/m3 20.31 C 99.03 % 2.9 m/s 255.44 Deg 0 ug/m3
2021-06-12 23:00 0.58 ug/m3 0.04 ug/m3 120.29 ug/m3 18.45 ug/m3 19.78 ug/m3 0.15 mg/m3 20.33 C 98.31 % 2.69 m/s 252.71 Deg 0.01 ug/m3
2021-06-12 22:00 0.57 ug/m3 0.03 ug/m3 121.19 ug/m3 14.5 ug/m3 20.1 ug/m3 0.15 mg/m3 20.43 C 97.99 % 1.79 m/s 236.3 Deg 0.01 ug/m3
2021-06-12 21:00 0.93 ug/m3 0.12 ug/m3 118.43 ug/m3 11.58 ug/m3 19.73 ug/m3 0.15 mg/m3 20.56 C 97.23 % 1.58 m/s 261.43 Deg 0.01 ug/m3
2021-06-12 20:00 0.73 ug/m3 0.2 ug/m3 124.39 ug/m3 22.15 ug/m3 19.98 ug/m3 0.15 mg/m3 20.83 C 95.43 % 1.98 m/s 326.7 Deg 0.01 ug/m3
2021-06-12 19:00 1.53 ug/m3 0.38 ug/m3 125.11 ug/m3 29.38 ug/m3 20.4 ug/m3 0.15 mg/m3 21.07 C 92.65 % 3.17 m/s 317.4 Deg 0.02 ug/m3
2021-06-12 18:00 0.61 ug/m3 0.48 ug/m3 117.59 ug/m3 8.6 ug/m3 22.9 ug/m3 0.15 mg/m3 21.4 C 90.56 % 3.22 m/s 282.87 Deg 0.01 ug/m3
2021-06-12 17:00 1.62 ug/m3 0.82 ug/m3 122.4 ug/m3 31.15 ug/m3 21.83 ug/m3 0.15 mg/m3 21.94 C 90.77 % 3.68 m/s 242.03 Deg 0.12 ug/m3
2021-06-12 16:00 0.84 ug/m3 0.96 ug/m3 123.95 ug/m3 28.58 ug/m3 24.28 ug/m3 0.15 mg/m3 22.82 C 80.53 % 2.78 m/s 255.18 Deg 0.05 ug/m3
2021-06-12 15:00 1.36 ug/m3 0.56 ug/m3 128.72 ug/m3 26.43 ug/m3 24.18 ug/m3 0.15 mg/m3 21.3 C 90.71 % 4.11 m/s 232.95 Deg 0.1 ug/m3
2021-06-12 14:00 1.97 ug/m3 0.65 ug/m3 133.39 ug/m3 11.9 ug/m3 21.1 ug/m3 0.15 mg/m3 21.74 C 88.92 % 4.13 m/s 241.46 Deg 0.17 ug/m3
2021-06-12 13:00 2.61 ug/m3 0.75 ug/m3 127.71 ug/m3 20 ug/m3 25.83 ug/m3 0.15 mg/m3 21.6 C 89.37 % 3.97 m/s 239.62 Deg 0.31 ug/m3
2021-06-12 12:00 0.96 ug/m3 0.58 ug/m3 117.59 ug/m3 18.05 ug/m3 24.85 ug/m3 0.15 mg/m3 21.66 C 88.06 % 3.14 m/s 268.66 Deg 0.06 ug/m3
2021-06-12 11:00 0.8 ug/m3 0.56 ug/m3 112.02 ug/m3 24.23 ug/m3 19.58 ug/m3 0.15 mg/m3 21.29 C 90.03 % 3.51 m/s 326.47 Deg 0.06 ug/m3
2021-06-12 10:00 9.89 ug/m3 1.1 ug/m3 101.82 ug/m3 26.5 ug/m3 16.53 ug/m3 0.15 mg/m3 21.28 C 91.01 % 3.87 m/s 290.72 Deg 2.22 ug/m3
2021-06-12 09:00 6.63 ug/m3 0.52 ug/m3 111.04 ug/m3 28.43 ug/m3 15.93 ug/m3 0.15 mg/m3 20.91 C 90.27 % 4.49 m/s 260.97 Deg 1.26 ug/m3
2021-06-12 08:00 0.8 ug/m3 0.19 ug/m3 115.58 ug/m3 26.55 ug/m3 17.93 ug/m3 0.14 mg/m3 20.42 C 94.26 % 4.6 m/s 267.17 Deg 0.06 ug/m3
2021-06-12 07:00 0.85 ug/m3 0.06 ug/m3 111.3 ug/m3 22.25 ug/m3 17.25 ug/m3 0.14 mg/m3 20.02 C 95.98 % 4.5 m/s 274.47 Deg 0.04 ug/m3
2021-06-12 06:00 1.93 ug/m3 0.14 ug/m3 108.47 ug/m3 16.98 ug/m3 17.48 ug/m3 0.14 mg/m3 19.66 C 97.16 % 4.7 m/s 266.67 Deg 0.02 ug/m3
2021-06-12 05:00 4.57 ug/m3 0.11 ug/m3 101.66 ug/m3 16.05 ug/m3 19.43 ug/m3 0.14 mg/m3 19.41 C 98.54 % 3.53 m/s 261.95 Deg 0.03 ug/m3
2021-06-12 04:00 1.23 ug/m3 0.13 ug/m3 102.02 ug/m3 17.78 ug/m3 19.7 ug/m3 0.14 mg/m3 19.31 C 98.88 % 3.12 m/s 245.68 Deg 0.01 ug/m3
2021-06-12 03:00 2.06 ug/m3 0.11 ug/m3 102.99 ug/m3 15.9 ug/m3 17.35 ug/m3 0.14 mg/m3 19.39 C 98.99 % 2.84 m/s 242.57 Deg 0.01 ug/m3
2021-06-12 02:00 1.08 ug/m3 0.09 ug/m3 113.21 ug/m3 15.7 ug/m3 17.13 ug/m3 0.14 mg/m3 19.62 C 99.45 % 2.72 m/s 240.08 Deg 0.01 ug/m3
2021-06-12 01:00 1.48 ug/m3 0.15 ug/m3 108.29 ug/m3 17.4 ug/m3 19.5 ug/m3 0.15 mg/m3 19.78 C 98.6 % 2.21 m/s 246.28 Deg 0.01 ug/m3
2021-06-12 00:00 2.78 ug/m3 0.2 ug/m3 103.63 ug/m3 20.1 ug/m3 20.4 ug/m3 0.15 mg/m3 19.73 C 98.21 % 2.2 m/s 256.37 Deg 0.01 ug/m3
2021-06-11 23:00 6.36 ug/m3 0.36 ug/m3 97.95 ug/m3 29.03 ug/m3 20.63 ug/m3 0.16 mg/m3 20.02 C 98.38 % 1.69 m/s 253.87 Deg 0.01 ug/m3
2021-06-11 22:00 8.04 ug/m3 0.54 ug/m3 105.03 ug/m3 27.95 ug/m3 21.2 ug/m3 0.16 mg/m3 20.03 C 97.19 % 1.6 m/s 265.66 Deg 0.01 ug/m3
2021-06-11 21:00 4.5 ug/m3 0.53 ug/m3 120.98 ug/m3 25.13 ug/m3 17.58 ug/m3 0.16 mg/m3 20.12 C 95.53 % 1.41 m/s 299.03 Deg 0.01 ug/m3
2021-06-11 20:00 9.51 ug/m3 0.59 ug/m3 116.7 ug/m3 24.9 ug/m3 14.88 ug/m3 0.16 mg/m3 20.41 C 94.41 % 1.95 m/s 248.3 Deg 0.02 ug/m3
2021-06-11 19:00 3.84 ug/m3 0.64 ug/m3 127.56 ug/m3 28.38 ug/m3 13.2 ug/m3 0.15 mg/m3 20.81 C 92.29 % 2.84 m/s 321.4 Deg 0.07 ug/m3
2021-06-11 18:00 1.55 ug/m3 0.55 ug/m3 140.93 ug/m3 9.83 ug/m3 4.27 ug/m3 0.15 mg/m3 21.16 C 88.94 % 3.91 m/s 301.64 Deg 0.06 ug/m3
2021-06-11 17:00 1.03 ug/m3 0.61 ug/m3 134.12 ug/m3 0 ug/m3 0 ug/m3 0.15 mg/m3 21.5 C 85.64 % 4.22 m/s 266.04 Deg 0.05 ug/m3
2021-06-11 16:00 0.97 ug/m3 0.56 ug/m3 128.31 ug/m3 15.2 ug/m3 13.28 ug/m3 0.15 mg/m3 22.02 C 80.92 % 3.37 m/s 269.86 Deg 0.05 ug/m3
2021-06-11 15:00 1.76 ug/m3 0.75 ug/m3 128.82 ug/m3 21.17 ug/m3 20.83 ug/m3 0.15 mg/m3 22.16 C 77 % 3.57 m/s 281.6 Deg 0.13 ug/m3
2021-06-11 14:00 1.65 ug/m3 0.71 ug/m3 127.48 ug/m3 21.28 ug/m3 22.85 ug/m3 0.15 mg/m3 22.35 C 76.53 % 3.05 m/s 322.43 Deg 0.09 ug/m3
2021-06-11 13:00 4.1 ug/m3 0.97 ug/m3 122.28 ug/m3 12.2 ug/m3 20.6 ug/m3 0.15 mg/m3 23.05 C 65.88 % 2.69 m/s 325.68 Deg 0.58 ug/m3
2021-06-11 12:00 7.7 ug/m3 1.09 ug/m3 108.42 ug/m3 20.33 ug/m3 14.93 ug/m3 0.15 mg/m3 22.78 C 73.39 % 3.1 m/s 307.8 Deg 1.46 ug/m3
2021-06-11 11:00 4.11 ug/m3 0.88 ug/m3 118.59 ug/m3 20.03 ug/m3 17.5 ug/m3 0.14 mg/m3 22.96 C 62.15 % 2.96 m/s 254.52 Deg 0.49 ug/m3
2021-06-11 10:00 4.29 ug/m3 1.01 ug/m3 115.53 ug/m3 17.35 ug/m3 20.93 ug/m3 0.15 mg/m3 22.71 C 63.28 % 2.67 m/s 28.77 Deg 0.52 ug/m3
2021-06-11 09:00 8.91 ug/m3 1.19 ug/m3 97.47 ug/m3 19.98 ug/m3 16.95 ug/m3 0.15 mg/m3 21.73 C 76.63 % 1.94 m/s 322.31 Deg 1.61 ug/m3
2021-06-11 08:00 11.28 ug/m3 1.11 ug/m3 87.95 ug/m3 22.28 ug/m3 16.83 ug/m3 0.15 mg/m3 21.23 C 82.01 % 2.24 m/s 169.68 Deg 1.89 ug/m3
2021-06-11 07:00 7.86 ug/m3 0.79 ug/m3 89.77 ug/m3 21.13 ug/m3 18.5 ug/m3 0.15 mg/m3 20.51 C 84.01 % 2.13 m/s 15.35 Deg 0.77 ug/m3
2021-06-11 06:00 5.12 ug/m3 0.28 ug/m3 80.34 ug/m3 17.3 ug/m3 16.5 ug/m3 0.15 mg/m3 19.63 C 98.61 % 1.66 m/s 227.96 Deg 0.27 ug/m3
2021-06-11 05:00 3.71 ug/m3 0.24 ug/m3 84.72 ug/m3 19.43 ug/m3 11.65 ug/m3 0.14 mg/m3 19.7 C 98.44 % 1.45 m/s 291.1 Deg 0.02 ug/m3
2021-06-11 04:00 5.17 ug/m3 0.34 ug/m3 83.02 ug/m3 19.45 ug/m3 13.68 ug/m3 0.14 mg/m3 19.45 C 95.62 % 1.6 m/s 281.43 Deg 0.02 ug/m3
2021-06-11 03:00 6.53 ug/m3 0.3 ug/m3 81.59 ug/m3 21.05 ug/m3 14.2 ug/m3 0.14 mg/m3 19.3 C 96.68 % 1.06 m/s 252.13 Deg 0.02 ug/m3
2021-06-11 02:00 3.03 ug/m3 0.1 ug/m3 90.6 ug/m3 21.1 ug/m3 17.38 ug/m3 0.13 mg/m3 19.57 C 98.2 % 2.51 m/s 310.4 Deg 0.01 ug/m3
2021-06-11 01:00 4.03 ug/m3 0.07 ug/m3 91.02 ug/m3 15.2 ug/m3 18.2 ug/m3 0.15 mg/m3 19.8 C 98.08 % 2.32 m/s 297.1 Deg 0.01 ug/m3
2021-06-11 00:00 1.47 ug/m3 0.04 ug/m3 103.13 ug/m3 14.15 ug/m3 19.33 ug/m3 0.15 mg/m3 20.01 C 97.03 % 2.04 m/s 269.67 Deg 0.02 ug/m3
2021-06-10 23:00 2.29 ug/m3 0.31 ug/m3 107.99 ug/m3 17.33 ug/m3 16.48 ug/m3 0.14 mg/m3 21.02 C 80.55 % 1.28 m/s 280.23 Deg 0.01 ug/m3
2021-06-10 22:00 1.79 ug/m3 0.41 ug/m3 109.99 ug/m3 19.25 ug/m3 16.68 ug/m3 0.14 mg/m3 21.53 C 70.15 % 1.24 m/s 78.07 Deg 0 ug/m3
2021-06-10 21:00 2.63 ug/m3 0.38 ug/m3 110.65 ug/m3 18.75 ug/m3 17.48 ug/m3 0.15 mg/m3 20.87 C 81.29 % 1.65 m/s 34.12 Deg 0.01 ug/m3
2021-06-10 20:00 5.15 ug/m3 0.4 ug/m3 114.45 ug/m3 22.25 ug/m3 19.25 ug/m3 0.15 mg/m3 20.57 C 89.62 % 3.28 m/s 15.2 Deg 0.02 ug/m3
2021-06-10 19:00 1.29 ug/m3 0.43 ug/m3 125.98 ug/m3 18.78 ug/m3 21.08 ug/m3 0.15 mg/m3 20.89 C 87.9 % 2.97 m/s 6.14 Deg 0.03 ug/m3
2021-06-10 18:00 2.45 ug/m3 0.59 ug/m3 126.68 ug/m3 15.33 ug/m3 17.68 ug/m3 0.15 mg/m3 21 C 87.66 % 3.62 m/s 129.23 Deg 0.16 ug/m3
2021-06-10 17:00 2.64 ug/m3 0.71 ug/m3 128.28 ug/m3 15.53 ug/m3 16.1 ug/m3 0.15 mg/m3 21.46 C 83.01 % 4.67 m/s 326.31 Deg 0.22 ug/m3
2021-06-10 16:00 1.1 ug/m3 0.4 ug/m3 116.67 ug/m3 17.15 ug/m3 17.58 ug/m3 0.14 mg/m3 21.78 C 78.35 % 4.08 m/s 307.81 Deg 0.06 ug/m3
2021-06-10 15:00 2.1 ug/m3 0.52 ug/m3 121.54 ug/m3 12.2 ug/m3 18.7 ug/m3 0.14 mg/m3 21.57 C 81.23 % 3.72 m/s 308.84 Deg 0.19 ug/m3
2021-06-10 14:00 1.61 ug/m3 0.58 ug/m3 118.57 ug/m3 12.05 ug/m3 14.4 ug/m3 0.14 mg/m3 21.46 C 82.29 % 3.96 m/s 282.71 Deg 0.13 ug/m3
2021-06-10 13:00 1.59 ug/m3 0.52 ug/m3 112.61 ug/m3 11.1 ug/m3 14.03 ug/m3 0.14 mg/m3 21.38 C 79.68 % 3.64 m/s 286.6 Deg 0.14 ug/m3
2021-06-10 12:00 2.25 ug/m3 0.49 ug/m3 108.4 ug/m3 18.18 ug/m3 15 ug/m3 0.14 mg/m3 21.25 C 74.98 % 3.1 m/s 324.1 Deg 0.25 ug/m3
2021-06-10 11:00 2.35 ug/m3 0.68 ug/m3 109.2 ug/m3 15.53 ug/m3 17.38 ug/m3 0.14 mg/m3 20.98 C 81.69 % 3.02 m/s 334.88 Deg 0.26 ug/m3
2021-06-10 10:00 3.62 ug/m3 0.71 ug/m3 103.29 ug/m3 13.73 ug/m3 15.7 ug/m3 0.14 mg/m3 20.47 C 85.88 % 3.68 m/s 321.49 Deg 0.59 ug/m3
2021-06-10 09:00 7.08 ug/m3 0.81 ug/m3 94.42 ug/m3 12.95 ug/m3 13.18 ug/m3 0.14 mg/m3 20.33 C 86.78 % 3.82 m/s 320.58 Deg 1.43 ug/m3
2021-06-10 08:00 4.66 ug/m3 0.49 ug/m3 95.07 ug/m3 19.38 ug/m3 12.08 ug/m3 0.14 mg/m3 20.16 C 87.05 % 4.28 m/s 335.61 Deg 0.76 ug/m3
2021-06-10 07:00 3.94 ug/m3 0.26 ug/m3 93.66 ug/m3 20.67 ug/m3 11.37 ug/m3 0.14 mg/m3 19.54 C 91.25 % 4.84 m/s 330.71 Deg 0.59 ug/m3
2021-06-10 06:00 8.38 ug/m3 0.22 ug/m3 85.01 ug/m3 21.63 ug/m3 11.63 ug/m3 0.14 mg/m3 19.32 C 92.89 % 4.96 m/s 330.72 Deg 0.38 ug/m3
2021-06-10 05:00 4.74 ug/m3 0.24 ug/m3 87.89 ug/m3 21.88 ug/m3 11.43 ug/m3 0.13 mg/m3 19.33 C 92.35 % 5.37 m/s 331.04 Deg 0.03 ug/m3
2021-06-10 04:00 2 ug/m3 0.15 ug/m3 91.89 ug/m3 17.15 ug/m3 12.28 ug/m3 0.14 mg/m3 19.33 C 93.06 % 6.21 m/s 331.19 Deg 0.02 ug/m3
2021-06-10 03:00 3.87 ug/m3 0.28 ug/m3 90.02 ug/m3 23.18 ug/m3 15.23 ug/m3 0.14 mg/m3 19.46 C 92.97 % 7.02 m/s 330.76 Deg 0.02 ug/m3
2021-06-10 02:00 5.16 ug/m3 0.25 ug/m3 88.76 ug/m3 30.05 ug/m3 15.43 ug/m3 0.13 mg/m3 19.64 C 93.24 % 6.99 m/s 325.49 Deg 0.02 ug/m3
2021-06-10 01:00 2.22 ug/m3 0.14 ug/m3 94.61 ug/m3 23 ug/m3 16.2 ug/m3 0.14 mg/m3 19.83 C 92.91 % 6.43 m/s 316.2 Deg 0.03 ug/m3
2021-06-10 00:00 3.85 ug/m3 0.14 ug/m3 89.07 ug/m3 19.85 ug/m3 12.08 ug/m3 0.14 mg/m3 19.9 C 92.16 % 6.24 m/s 301.41 Deg 0.02 ug/m3
2021-06-09 23:00 1.84 ug/m3 0.08 ug/m3 90.4 ug/m3 19.4 ug/m3 15.35 ug/m3 0.14 mg/m3 19.8 C 92.96 % 6.36 m/s 301.71 Deg 0.01 ug/m3
2021-06-09 22:00 5.15 ug/m3 0.06 ug/m3 86.84 ug/m3 21.4 ug/m3 13.68 ug/m3 0.14 mg/m3 19.84 C 92.22 % 5.81 m/s 295.32 Deg 0.01 ug/m3
2021-06-09 21:00 0.8 ug/m3 0.01 ug/m3 96.02 ug/m3 16.83 ug/m3 16.95 ug/m3 0.13 mg/m3 19.9 C 87.91 % 5.46 m/s 284.38 Deg 0.01 ug/m3
2021-06-09 20:00 3.39 ug/m3 0.05 ug/m3 94.98 ug/m3 23.2 ug/m3 18.55 ug/m3 0.14 mg/m3 19.8 C 88.53 % 4.77 m/s 291.12 Deg 0.01 ug/m3
2021-06-09 19:00 0.85 ug/m3 0.05 ug/m3 101.95 ug/m3 23.13 ug/m3 17.7 ug/m3 0.14 mg/m3 20.27 C 86.71 % 5.56 m/s 294.64 Deg 0.02 ug/m3
2021-06-09 18:00 3.94 ug/m3 0.3 ug/m3 97.57 ug/m3 22.5 ug/m3 17.25 ug/m3 0.14 mg/m3 20.71 C 85.93 % 5.5 m/s 291.32 Deg 0.45 ug/m3
2021-06-09 17:00 2.45 ug/m3 0.15 ug/m3 97.77 ug/m3 19.9 ug/m3 17.88 ug/m3 0.14 mg/m3 20.91 C 85.92 % 6.3 m/s 289.83 Deg 0.33 ug/m3
2021-06-09 16:00 0.51 ug/m3 0.05 ug/m3 95.63 ug/m3 18.63 ug/m3 17.2 ug/m3 0.13 mg/m3 21.01 C 85.5 % 6.44 m/s 286.19 Deg 0.04 ug/m3
2021-06-09 15:00 0.49 ug/m3 0.12 ug/m3 95.13 ug/m3 16.03 ug/m3 15.85 ug/m3 0.13 mg/m3 21.11 C 84.73 % 7.05 m/s 279.7 Deg 0.03 ug/m3
2021-06-09 14:00 0.55 ug/m3 0.1 ug/m3 97.33 ug/m3 17.38 ug/m3 16.25 ug/m3 0.13 mg/m3 21.03 C 83.99 % 7.01 m/s 277.75 Deg 0.04 ug/m3
2021-06-09 13:00 0.57 ug/m3 0.04 ug/m3 97.45 ug/m3 17.88 ug/m3 15.38 ug/m3 0.13 mg/m3 21 C 82.24 % 6.3 m/s 282.46 Deg 0.03 ug/m3
2021-06-09 12:00 0.56 ug/m3 0.07 ug/m3 96.34 ug/m3 16.38 ug/m3 17.55 ug/m3 0.13 mg/m3 21.12 C 79.14 % 5.5 m/s 286.93 Deg 0.03 ug/m3
2021-06-09 11:00 1.53 ug/m3 0.1 ug/m3 103.08 ug/m3 16.58 ug/m3 16.98 ug/m3 0.13 mg/m3 21.09 C 81.85 % 4.82 m/s 303.68 Deg 0.22 ug/m3
2021-06-09 10:00 0.71 ug/m3 0.06 ug/m3 99.8 ug/m3 21 ug/m3 14.18 ug/m3 0.13 mg/m3 20.72 C 82.84 % 5.58 m/s 312.1 Deg 0.05 ug/m3
2021-06-09 09:00 2.68 ug/m3 0.14 ug/m3 99.95 ug/m3 17.9 ug/m3 13.4 ug/m3 0.13 mg/m3 20.18 C 85.22 % 6.41 m/s 319.08 Deg 0.42 ug/m3
2021-06-09 08:00 2.62 ug/m3 0.06 ug/m3 99.42 ug/m3 21.7 ug/m3 8.9 ug/m3 0.13 mg/m3 19.52 C 88.93 % 6.06 m/s 306.72 Deg 0.28 ug/m3
2021-06-09 07:00 2.33 ug/m3 0.06 ug/m3 94.47 ug/m3 14.8 ug/m3 10.7 ug/m3 0.13 mg/m3 19.28 C 91.7 % 5.62 m/s 296.6 Deg 0.15 ug/m3
2021-06-09 06:00 2.69 ug/m3 0.09 ug/m3 88.74 ug/m3 15.73 ug/m3 12.65 ug/m3 0.14 mg/m3 18.99 C 93.43 % 5.29 m/s 300.14 Deg 0.07 ug/m3
2021-06-09 05:00 2.27 ug/m3 0.08 ug/m3 86.56 ug/m3 19.58 ug/m3 12.13 ug/m3 0.13 mg/m3 18.98 C 94.12 % 5.09 m/s 309.12 Deg 0.02 ug/m3
2021-06-09 04:00 3.27 ug/m3 0.17 ug/m3 84.52 ug/m3 20.28 ug/m3 11.88 ug/m3 0.14 mg/m3 19.14 C 93.78 % 5.77 m/s 308.53 Deg 0.02 ug/m3
2021-06-09 03:00 2.97 ug/m3 0.14 ug/m3 85.35 ug/m3 20.58 ug/m3 13.93 ug/m3 0.13 mg/m3 19.26 C 93.14 % 5.66 m/s 299.17 Deg 0.01 ug/m3
2021-06-09 02:00 4 ug/m3 0.19 ug/m3 82.82 ug/m3 20.55 ug/m3 13.4 ug/m3 0.13 mg/m3 19.45 C 91.79 % 6.07 m/s 315.92 Deg 0.03 ug/m3
2021-06-09 01:00 2.72 ug/m3 0.08 ug/m3 91.03 ug/m3 22.1 ug/m3 12.1 ug/m3 0.13 mg/m3 19.56 C 91.44 % 7.32 m/s 329.92 Deg 0.01 ug/m3
2021-06-09 00:00 1.98 ug/m3 0.04 ug/m3 95.56 ug/m3 18.05 ug/m3 14.58 ug/m3 0.13 mg/m3 19.62 C 89.77 % 7.52 m/s 317.76 Deg 0.01 ug/m3
2021-06-08 23:00 6.75 ug/m3 0.07 ug/m3 87.04 ug/m3 18.9 ug/m3 14.53 ug/m3 0.13 mg/m3 19.63 C 88.04 % 6.4 m/s 301.28 Deg 0.02 ug/m3
2021-06-08 22:00 1.97 ug/m3 -0.06 ug/m3 88.51 ug/m3 23.38 ug/m3 13.8 ug/m3 0.13 mg/m3 19.8 C 87.55 % 6.06 m/s 302.91 Deg -0 ug/m3
2021-06-08 21:00 4.45 ug/m3 0.05 ug/m3 86.77 ug/m3 21.58 ug/m3 13.63 ug/m3 0.13 mg/m3 19.98 C 86.55 % 5.89 m/s 300.85 Deg 0.01 ug/m3
2021-06-08 20:00 1.71 ug/m3 -0.03 ug/m3 96.88 ug/m3 20.9 ug/m3 15.03 ug/m3 0.13 mg/m3 19.99 C 88.71 % 5.38 m/s 293.24 Deg 0.01 ug/m3
2021-06-08 19:00 1.57 ug/m3 0.03 ug/m3 100.38 ug/m3 17.48 ug/m3 16.33 ug/m3 0.13 mg/m3 20.44 C 87.33 % 5.98 m/s 284.77 Deg 0.05 ug/m3
2021-06-08 18:00 1.18 ug/m3 0.06 ug/m3 102.55 ug/m3 20.05 ug/m3 19.53 ug/m3 0.13 mg/m3 21.09 C 82 % 5.58 m/s 287.86 Deg 0.07 ug/m3
2021-06-08 17:00 0.72 ug/m3 0.12 ug/m3 107.21 ug/m3 18.68 ug/m3 20.35 ug/m3 0.13 mg/m3 20.95 C 85.9 % 6.4 m/s 291.64 Deg 0.04 ug/m3
2021-06-08 16:00 1.17 ug/m3 0.15 ug/m3 110.87 ug/m3 19.9 ug/m3 16.03 ug/m3 0.13 mg/m3 20.95 C 83.93 % 7.45 m/s 285.78 Deg 0.08 ug/m3
2021-06-08 15:00 0.76 ug/m3 0.15 ug/m3 102.81 ug/m3 18.65 ug/m3 16.18 ug/m3 0.13 mg/m3 20.99 C 81.67 % 8.13 m/s 281 Deg 0.05 ug/m3
2021-06-08 14:00 0.9 ug/m3 0.25 ug/m3 103.73 ug/m3 19.65 ug/m3 17.3 ug/m3 0.13 mg/m3 21.13 C 81.39 % 8.09 m/s 283.4 Deg 0.07 ug/m3
2021-06-08 13:00 1.88 ug/m3 0.33 ug/m3 112.3 ug/m3 22.15 ug/m3 18.85 ug/m3 0.13 mg/m3 21.23 C 83.65 % 7.18 m/s 290.57 Deg 0.25 ug/m3
2021-06-08 12:00 1.05 ug/m3 0.21 ug/m3 106.92 ug/m3 26.85 ug/m3 17.58 ug/m3 0.13 mg/m3 21.42 C 83.92 % 6.11 m/s 302.57 Deg 0.08 ug/m3
2021-06-08 11:00 2.72 ug/m3 0.34 ug/m3 103.26 ug/m3 23.78 ug/m3 17 ug/m3 0.13 mg/m3 21.08 C 83.96 % 6.1 m/s 313.93 Deg 0.44 ug/m3
2021-06-08 10:00 4.13 ug/m3 0.4 ug/m3 97.46 ug/m3 21.93 ug/m3 19.25 ug/m3 0.13 mg/m3 20.96 C 84.03 % 5.92 m/s 300.76 Deg 0.8 ug/m3
2021-06-08 09:00 5.48 ug/m3 0.23 ug/m3 92.41 ug/m3 23.08 ug/m3 16.33 ug/m3 0.13 mg/m3 20.6 C 86.21 % 5.88 m/s 307.72 Deg 1.19 ug/m3
2021-06-08 08:00 0.99 ug/m3 0.04 ug/m3 93.46 ug/m3 21.1 ug/m3 14.5 ug/m3 0.13 mg/m3 20.02 C 89.95 % 6.14 m/s 302.85 Deg 0.12 ug/m3
2021-06-08 07:00 1.53 ug/m3 0.01 ug/m3 90.19 ug/m3 20.23 ug/m3 14.23 ug/m3 0.13 mg/m3 19.65 C 91.58 % 5.81 m/s 302.9 Deg 0.17 ug/m3
2021-06-08 06:00 1.61 ug/m3 -0.02 ug/m3 88.22 ug/m3 19.6 ug/m3 12.63 ug/m3 0.13 mg/m3 19.49 C 90.94 % 5.36 m/s 313.13 Deg 0.06 ug/m3
2021-06-08 05:00 1.25 ug/m3 0.03 ug/m3 88.32 ug/m3 22.18 ug/m3 10.83 ug/m3 0.13 mg/m3 19.39 C 91.31 % 5.09 m/s 312.84 Deg 0.01 ug/m3
2021-06-08 04:00 3.09 ug/m3 0.06 ug/m3 85.4 ug/m3 20.93 ug/m3 13.25 ug/m3 0.19 mg/m3 19.45 C 91.39 % 6.44 m/s 319.01 Deg 0.02 ug/m3
2021-06-08 03:00 3.36 ug/m3 0.12 ug/m3 85.44 ug/m3 21.78 ug/m3 10.53 ug/m3 0.13 mg/m3 19.56 C 92.57 % 7.43 m/s 321.92 Deg 0.01 ug/m3
2021-06-08 02:00 2.7 ug/m3 0.09 ug/m3 85.52 ug/m3 25.9 ug/m3 12.98 ug/m3 0.12 mg/m3 19.76 C 91.47 % 7.45 m/s 319.71 Deg 0.02 ug/m3
2021-06-08 01:00 2.67 ug/m3 0.09 ug/m3 85.19 ug/m3 25.7 ug/m3 13.4 ug/m3 0.13 mg/m3 19.91 C 91.34 % 7.96 m/s 319.58 Deg 0.02 ug/m3
2021-06-08 00:00 3.83 ug/m3 0.14 ug/m3 85 ug/m3 25.1 ug/m3 14.98 ug/m3 0.13 mg/m3 20.04 C 90.6 % 7.39 m/s 313.72 Deg 0.02 ug/m3
2021-06-07 23:00 1.75 ug/m3 0.04 ug/m3 89.29 ug/m3 24.75 ug/m3 15.43 ug/m3 0.12 mg/m3 20.03 C 91.68 % 6.89 m/s 302.97 Deg 0.01 ug/m3
2021-06-07 22:00 2.35 ug/m3 0 ug/m3 90.14 ug/m3 25.53 ug/m3 14.73 ug/m3 0.13 mg/m3 19.94 C 93.53 % 6.68 m/s 297.4 Deg 0.01 ug/m3
2021-06-07 21:00 3.32 ug/m3 -0.01 ug/m3 92.18 ug/m3 25.5 ug/m3 15.93 ug/m3 0.12 mg/m3 19.97 C 93.22 % 6.77 m/s 292.14 Deg 0.01 ug/m3
2021-06-07 20:00 2.09 ug/m3 -0.02 ug/m3 94.48 ug/m3 26.53 ug/m3 18.53 ug/m3 0.12 mg/m3 20.12 C 92.23 % 7.21 m/s 294.54 Deg 0.01 ug/m3
2021-06-07 19:00 2.58 ug/m3 0 ug/m3 92.62 ug/m3 28.6 ug/m3 18.78 ug/m3 0.12 mg/m3 20.59 C 90.09 % 6.94 m/s 295.85 Deg 0.08 ug/m3
2021-06-07 18:00 0.43 ug/m3 -0.01 ug/m3 92.3 ug/m3 34.65 ug/m3 21.58 ug/m3 0.12 mg/m3 21.03 C 89.03 % 6.82 m/s 299.16 Deg 0.06 ug/m3
2021-06-07 17:00 0.58 ug/m3 0.09 ug/m3 98.69 ug/m3 37.25 ug/m3 22.15 ug/m3 0.12 mg/m3 21.56 C 87.32 % 6.14 m/s 302.94 Deg 0.06 ug/m3
2021-06-07 16:00 0.82 ug/m3 0.12 ug/m3 105.43 ug/m3 31.65 ug/m3 21.78 ug/m3 0.12 mg/m3 21.7 C 86.87 % 6.13 m/s 307.14 Deg 0.08 ug/m3
2021-06-07 15:00 1.14 ug/m3 0.12 ug/m3 105 ug/m3 22.65 ug/m3 18.85 ug/m3 0.12 mg/m3 21.83 C 84.88 % 6.07 m/s 309.95 Deg 0.12 ug/m3
2021-06-07 14:00 2.96 ug/m3 0.48 ug/m3 105.27 ug/m3 18.95 ug/m3 18.58 ug/m3 0.13 mg/m3 21.65 C 84.55 % 5.77 m/s 318.37 Deg 0.43 ug/m3
2021-06-07 13:00 2.64 ug/m3 0.67 ug/m3 128.79 ug/m3 17 ug/m3 19.55 ug/m3 0.14 mg/m3 21.47 C 85.19 % 5.36 m/s 328.65 Deg 0.16 ug/m3
2021-06-07 12:00 9.21 ug/m3 0.81 ug/m3 102.62 ug/m3 18.9 ug/m3 17.63 ug/m3 0.14 mg/m3 21.48 C 88.15 % 5.64 m/s 326.88 Deg 1.56 ug/m3
2021-06-07 11:00 5.97 ug/m3 0.71 ug/m3 97.14 ug/m3 18.8 ug/m3 13.68 ug/m3 0.13 mg/m3 22.03 C 87.26 % 4.23 m/s 333.38 Deg 1.08 ug/m3
2021-06-07 10:00 2.24 ug/m3 0.75 ug/m3 108.17 ug/m3 10.85 ug/m3 15.23 ug/m3 0.13 mg/m3 23.29 C 70.4 % 2.94 m/s 314.7 Deg 0.32 ug/m3
2021-06-07 09:00 3.76 ug/m3 0.74 ug/m3 99.68 ug/m3 18.28 ug/m3 14.83 ug/m3 0.13 mg/m3 23.24 C 75.32 % 2.32 m/s 286.42 Deg 0.63 ug/m3
2021-06-07 08:00 5.29 ug/m3 0.52 ug/m3 88.57 ug/m3 24.75 ug/m3 15.75 ug/m3 0.14 mg/m3 22.45 C 83.27 % 2.72 m/s 69.78 Deg 0.84 ug/m3
2021-06-07 07:00 7.14 ug/m3 0.25 ug/m3 78.1 ug/m3 20.85 ug/m3 12.98 ug/m3 0.14 mg/m3 20.73 C 93.02 % 3.75 m/s 90.34 Deg 0.76 ug/m3
2021-06-07 06:00 2.96 ug/m3 0.11 ug/m3 78.95 ug/m3 18.6 ug/m3 10.7 ug/m3 0.14 mg/m3 19.8 C 96 % 3.13 m/s 96.06 Deg 0.11 ug/m3
2021-06-07 05:00 3.62 ug/m3 0.14 ug/m3 78.99 ug/m3 18.63 ug/m3 12.78 ug/m3 0.13 mg/m3 19.8 C 96.35 % 3.34 m/s 95.8 Deg 0.03 ug/m3
2021-06-07 04:00 3.43 ug/m3 0.15 ug/m3 78.82 ug/m3 18.4 ug/m3 13.3 ug/m3 0.13 mg/m3 19.83 C 94.07 % 3.03 m/s 95.77 Deg 0.01 ug/m3
2021-06-07 03:00 3.97 ug/m3 0.22 ug/m3 76.93 ug/m3 19.28 ug/m3 16.73 ug/m3 0.13 mg/m3 19.71 C 91.39 % 2.74 m/s 83.4 Deg 0.03 ug/m3
2021-06-07 02:00 3.97 ug/m3 0.16 ug/m3 79.41 ug/m3 19.38 ug/m3 17.3 ug/m3 0.12 mg/m3 19.85 C 89.07 % 3.08 m/s 96.88 Deg 0.02 ug/m3
2021-06-07 01:00 3.18 ug/m3 0.06 ug/m3 81.3 ug/m3 9.9 ug/m3 12.9 ug/m3 0.15 mg/m3 19.65 C 89.78 % 2.38 m/s 83.39 Deg 0.01 ug/m3
2021-06-07 00:00 1.58 ug/m3 -0.02 ug/m3 83.74 ug/m3 16.13 ug/m3 12.9 ug/m3 0.15 mg/m3 19.81 C 90.76 % 2.8 m/s 85.33 Deg 0.01 ug/m3
2021-06-06 23:00 4.67 ug/m3 0.08 ug/m3 81.68 ug/m3 20.68 ug/m3 17.48 ug/m3 0.16 mg/m3 20.36 C 79.96 % 2.16 m/s 87.37 Deg 0.01 ug/m3
2021-06-06 22:00 6.18 ug/m3 0.23 ug/m3 91.14 ug/m3 24.28 ug/m3 14.73 ug/m3 0.17 mg/m3 21.46 C 64.82 % 2.11 m/s 96.51 Deg 0.01 ug/m3
2021-06-06 21:00 4.27 ug/m3 0.2 ug/m3 99.88 ug/m3 18.9 ug/m3 13.15 ug/m3 0.15 mg/m3 22.02 C 59.85 % 2.1 m/s 60.49 Deg 0.01 ug/m3
2021-06-06 20:00 1.15 ug/m3 0.14 ug/m3 104.6 ug/m3 18.3 ug/m3 15.88 ug/m3 0.15 mg/m3 21.89 C 68.53 % 5.78 m/s 138.07 Deg 0 ug/m3
2021-06-06 19:00 0.68 ug/m3 0.11 ug/m3 98.66 ug/m3 18.88 ug/m3 15.98 ug/m3 0.14 mg/m3 21.75 C 75.79 % 6.76 m/s 159.75 Deg 0.03 ug/m3
2021-06-06 18:00 0.46 ug/m3 0.1 ug/m3 92.3 ug/m3 20.85 ug/m3 10.75 ug/m3 0.14 mg/m3 21.99 C 78.05 % 7.95 m/s 163.62 Deg 0.03 ug/m3
2021-06-06 17:00 0.85 ug/m3 0.17 ug/m3 99.7 ug/m3 30.95 ug/m3 8.95 ug/m3 0.13 mg/m3 23.57 C 58.8 % 7.77 m/s 161.51 Deg 0.05 ug/m3
2021-06-06 16:00 0.82 ug/m3 0.2 ug/m3 102.26 ug/m3 22.18 ug/m3 11.23 ug/m3 0.13 mg/m3 23.88 C 55.55 % 7.86 m/s 152.75 Deg 0.05 ug/m3
2021-06-06 15:00 0.91 ug/m3 0.22 ug/m3 108.53 ug/m3 29.15 ug/m3 13.2 ug/m3 0.13 mg/m3 23.77 C 54.67 % 8.03 m/s 164.11 Deg 0.04 ug/m3
2021-06-06 14:00 1.28 ug/m3 0.16 ug/m3 109.08 ug/m3 19 ug/m3 8.28 ug/m3 0.12 mg/m3 24.85 C 39.62 % 7.06 m/s 166.22 Deg 0.04 ug/m3
2021-06-06 13:00 2.27 ug/m3 0.35 ug/m3 115.44 ug/m3 1.6 ug/m3 14.17 ug/m3 0.13 mg/m3 25.52 C 32.66 % 5.89 m/s 170.39 Deg 0.13 ug/m3
2021-06-06 12:00 3.92 ug/m3 0.72 ug/m3 118.14 ug/m3 28.43 ug/m3 16.88 ug/m3 0.16 mg/m3 25.07 C 44.93 % 3.03 m/s 191.35 Deg 0.32 ug/m3
2021-06-06 11:00 8.94 ug/m3 0.82 ug/m3 122.27 ug/m3 25.33 ug/m3 13.88 ug/m3 0.17 mg/m3 24.5 C 55.25 % 3.66 m/s 44.17 Deg 1.21 ug/m3
2021-06-06 10:00 1.59 ug/m3 0.53 ug/m3 113.79 ug/m3 16.4 ug/m3 14.35 ug/m3 0.14 mg/m3 24.55 C 43.84 % 4.53 m/s 138.02 Deg 0.11 ug/m3
2021-06-06 09:00 2.21 ug/m3 0.31 ug/m3 116.04 ug/m3 12.15 ug/m3 18.25 ug/m3 0.14 mg/m3 22.86 C 51.47 % 6.18 m/s 165.13 Deg 0.13 ug/m3
2021-06-06 08:00 9.2 ug/m3 0.73 ug/m3 109.3 ug/m3 19.38 ug/m3 16.63 ug/m3 0.15 mg/m3 22.63 C 46.29 % 4.21 m/s 161.12 Deg 0.83 ug/m3
2021-06-06 07:00 16.09 ug/m3 0.59 ug/m3 91.8 ug/m3 25.55 ug/m3 15.4 ug/m3 0.18 mg/m3 20.9 C 65.11 % 2.67 m/s 114.64 Deg 1.07 ug/m3
2021-06-06 06:00 13.51 ug/m3 0.3 ug/m3 90.24 ug/m3 14.48 ug/m3 18.68 ug/m3 0.17 mg/m3 20.27 C 66.81 % 2.21 m/s 112.08 Deg 0.35 ug/m3
2021-06-06 05:00 5.65 ug/m3 0.17 ug/m3 105.25 ug/m3 15.58 ug/m3 15.98 ug/m3 0.16 mg/m3 20.49 C 62.02 % 2.95 m/s 123.62 Deg 0.02 ug/m3
2021-06-06 04:00 5.13 ug/m3 0.12 ug/m3 104.43 ug/m3 13.78 ug/m3 14.85 ug/m3 0.16 mg/m3 19.91 C 73.64 % 3.4 m/s 115.96 Deg 0.01 ug/m3
2021-06-06 03:00 2.78 ug/m3 0.13 ug/m3 112.08 ug/m3 9.38 ug/m3 15.88 ug/m3 0.15 mg/m3 20.04 C 69.59 % 2.18 m/s 114.58 Deg -0 ug/m3
2021-06-06 02:00 1.84 ug/m3 0.08 ug/m3 113.91 ug/m3 22.03 ug/m3 15.98 ug/m3 0.14 mg/m3 19.99 C 77.73 % 1.88 m/s 96.74 Deg 0.01 ug/m3
2021-06-06 01:00 2.87 ug/m3 0.16 ug/m3 110.12 ug/m3 15.1 ug/m3 7.1 ug/m3 0.15 mg/m3 20.25 C 61.88 % 2.08 m/s 82.41 Deg 0 ug/m3
2021-06-06 00:00 1.82 ug/m3 0.14 ug/m3 117.23 ug/m3 11.8 ug/m3 11.75 ug/m3 0.15 mg/m3 21.14 C 47.61 % 2 m/s 108.87 Deg -0 ug/m3
2021-06-05 23:00 1.13 ug/m3 0.13 ug/m3 111.24 ug/m3 13.1 ug/m3 12.78 ug/m3 0.15 mg/m3 20.92 C 58.96 % 2.95 m/s 199.99 Deg 0 ug/m3
2021-06-05 22:00 3.06 ug/m3 0.17 ug/m3 99.13 ug/m3 12.33 ug/m3 12.38 ug/m3 0.15 mg/m3 20.17 C 79.44 % 2.14 m/s 205.36 Deg 0.01 ug/m3
2021-06-05 21:00 1.72 ug/m3 0.08 ug/m3 109.78 ug/m3 11.28 ug/m3 13.73 ug/m3 0.15 mg/m3 20.31 C 80.97 % 2.03 m/s 226.42 Deg 0.01 ug/m3
2021-06-05 20:00 0.77 ug/m3 0.06 ug/m3 116.55 ug/m3 12.53 ug/m3 15.25 ug/m3 0.14 mg/m3 20.7 C 75.58 % 2.12 m/s 228.36 Deg 0.01 ug/m3
2021-06-05 19:00 0.87 ug/m3 0.1 ug/m3 126.44 ug/m3 16 ug/m3 16.13 ug/m3 0.14 mg/m3 21.37 C 68.77 % 3.64 m/s 220.49 Deg 0.01 ug/m3
2021-06-05 18:00 1.31 ug/m3 0.2 ug/m3 133.56 ug/m3 16.55 ug/m3 16.3 ug/m3 0.15 mg/m3 21.92 C 65.32 % 4.35 m/s 217.57 Deg 0.04 ug/m3
2021-06-05 17:00 2.95 ug/m3 0.32 ug/m3 136.51 ug/m3 10.4 ug/m3 16.9 ug/m3 0.15 mg/m3 22.22 C 67.65 % 5.09 m/s 213.9 Deg 0.19 ug/m3
2021-06-05 16:00 1.32 ug/m3 0.2 ug/m3 128.33 ug/m3 19.33 ug/m3 11.88 ug/m3 0.15 mg/m3 22.59 C 62.16 % 5.28 m/s 214.16 Deg 0.05 ug/m3
2021-06-05 15:00 6.17 ug/m3 1.21 ug/m3 121.91 ug/m3 3.35 ug/m3 14.45 ug/m3 0.14 mg/m3 23.54 C 55.66 % 4.67 m/s 216.85 Deg 0.77 ug/m3
2021-06-05 14:00 1.66 ug/m3 0.3 ug/m3 115.53 ug/m3 18.98 ug/m3 12.98 ug/m3 0.14 mg/m3 22.8 C 64.89 % 4.01 m/s 225.36 Deg 0.16 ug/m3
2021-06-05 13:00 0.85 ug/m3 0.32 ug/m3 117.52 ug/m3 3.75 ug/m3 16.35 ug/m3 0.14 mg/m3 22.28 C 68.32 % 4.66 m/s 218.76 Deg 0.05 ug/m3
2021-06-05 12:00 1.63 ug/m3 0.42 ug/m3 125.5 ug/m3 -12.5 ug/m3 20.05 ug/m3 0.14 mg/m3 22.42 C 69.28 % 3.89 m/s 216.41 Deg 0.12 ug/m3
2021-06-05 11:00 2.97 ug/m3 0.52 ug/m3 121.84 ug/m3 17.23 ug/m3 13.15 ug/m3 0.13 mg/m3 23.7 C 52.57 % 2.55 m/s 217.73 Deg 0.29 ug/m3
2021-06-05 10:00 3.09 ug/m3 0.41 ug/m3 120.13 ug/m3 14.38 ug/m3 13.45 ug/m3 0.13 mg/m3 24.48 C 42.14 % 1.82 m/s 239.58 Deg 0.26 ug/m3
2021-06-05 09:00 1.89 ug/m3 0.33 ug/m3 129.18 ug/m3 23.68 ug/m3 10.65 ug/m3 0.13 mg/m3 24.23 C 32.25 % 1.54 m/s 17.9 Deg 0.05 ug/m3
2021-06-05 08:00 5.03 ug/m3 0.83 ug/m3 119.34 ug/m3 22.15 ug/m3 7.9 ug/m3 0.14 mg/m3 23.32 C 37.83 % 1.83 m/s 34.49 Deg 0.29 ug/m3
2021-06-05 07:00 10.13 ug/m3 0.97 ug/m3 103.5 ug/m3 14.93 ug/m3 11.23 ug/m3 0.14 mg/m3 21.35 C 55.78 % 1.79 m/s 44.25 Deg 0.64 ug/m3
2021-06-05 06:00 3.83 ug/m3 0.33 ug/m3 102.69 ug/m3 14.85 ug/m3 13.4 ug/m3 0.14 mg/m3 19.92 C 77.17 % 2.31 m/s 50.21 Deg 0.07 ug/m3
2021-06-05 05:00 2.04 ug/m3 0.1 ug/m3 106.8 ug/m3 15.85 ug/m3 18.65 ug/m3 0.13 mg/m3 19.36 C 93.18 % 2.5 m/s 51.62 Deg 0.02 ug/m3
2021-06-05 04:00 3.28 ug/m3 0.15 ug/m3 95.61 ug/m3 12.63 ug/m3 16.25 ug/m3 0.14 mg/m3 19.36 C 94.36 % 2.75 m/s 42.01 Deg 0.01 ug/m3
2021-06-05 03:00 5.82 ug/m3 0.23 ug/m3 84.56 ug/m3 13.98 ug/m3 13.7 ug/m3 0.13 mg/m3 19.28 C 92.02 % 2.77 m/s 19.52 Deg 0.02 ug/m3
2021-06-05 02:00 2.71 ug/m3 0.14 ug/m3 92.86 ug/m3 10.98 ug/m3 13.6 ug/m3 0.13 mg/m3 19.45 C 90.91 % 2.29 m/s 41.56 Deg 0.01 ug/m3
2021-06-05 01:00 4.94 ug/m3 0.2 ug/m3 95.34 ug/m3 13.1 ug/m3 15.6 ug/m3 0.14 mg/m3 19.6 C 88.07 % 2.33 m/s 52.06 Deg 0.02 ug/m3
2021-06-05 00:00 3.92 ug/m3 0.16 ug/m3 97.42 ug/m3 9.95 ug/m3 17.48 ug/m3 0.14 mg/m3 19.81 C 87.19 % 2.11 m/s 41.59 Deg 0.01 ug/m3
2021-06-04 23:00 1.46 ug/m3 0.15 ug/m3 101.48 ug/m3 4.1 ug/m3 17.58 ug/m3 0.14 mg/m3 20.06 C 86.64 % 1.87 m/s 67.2 Deg 0.01 ug/m3
2021-06-04 22:00 6.51 ug/m3 0.22 ug/m3 83.07 ug/m3 12.93 ug/m3 12 ug/m3 0.14 mg/m3 20.01 C 87.67 % 1.86 m/s 35.52 Deg 0.01 ug/m3
2021-06-04 21:00 1.86 ug/m3 0.02 ug/m3 94.58 ug/m3 15.65 ug/m3 12.15 ug/m3 0.15 mg/m3 20.43 C 78.96 % 2.43 m/s 66.56 Deg 0 ug/m3
2021-06-04 20:00 1.89 ug/m3 0.06 ug/m3 94.85 ug/m3 24.93 ug/m3 12.5 ug/m3 0.15 mg/m3 20.75 C 71.66 % 2.37 m/s 150.68 Deg 0.03 ug/m3
2021-06-04 19:00 1.2 ug/m3 0.15 ug/m3 103.41 ug/m3 7.18 ug/m3 14.2 ug/m3 0.14 mg/m3 21.88 C 64.23 % 2.74 m/s 156.4 Deg 0.03 ug/m3
2021-06-04 18:00 2.01 ug/m3 0.35 ug/m3 106.7 ug/m3 7.13 ug/m3 14.27 ug/m3 0.14 mg/m3 22.07 C 63.41 % 4.53 m/s 169.35 Deg 0.14 ug/m3
2021-06-04 17:00 1.24 ug/m3 0.24 ug/m3 112.13 ug/m3 16.3 ug/m3 15.2 ug/m3 0.13 mg/m3 22.43 C 60.35 % 5.65 m/s 184.05 Deg 0.07 ug/m3
2021-06-04 16:00 1.8 ug/m3 0.37 ug/m3 114.22 ug/m3 11 ug/m3 18 ug/m3 0.14 mg/m3 23.54 C 54.46 % 4.32 m/s 172.76 Deg 0.16 ug/m3
2021-06-04 15:00 1.46 ug/m3 0.3 ug/m3 112.17 ug/m3 18.35 ug/m3 16.78 ug/m3 0.14 mg/m3 22.87 C 68.11 % 3.42 m/s 327.88 Deg 0.16 ug/m3
2021-06-04 14:00 1.08 ug/m3 0.32 ug/m3 111.75 ug/m3 37.2 ug/m3 10.63 ug/m3 0.14 mg/m3 22.72 C 71.19 % 3.72 m/s 318.78 Deg 0.1 ug/m3
2021-06-04 13:00 3.08 ug/m3 0.51 ug/m3 120.07 ug/m3 23.28 ug/m3 10.3 ug/m3 0.14 mg/m3 23.25 C 67.31 % 3.52 m/s 260.69 Deg 0.34 ug/m3
2021-06-04 12:00 3.22 ug/m3 0.34 ug/m3 123.14 ug/m3 24.7 ug/m3 12.53 ug/m3 0.13 mg/m3 26.08 C 28.41 % 4.13 m/s 129.65 Deg 0.25 ug/m3
2021-06-04 11:00 3.33 ug/m3 0.39 ug/m3 121.86 ug/m3 22.43 ug/m3 11.83 ug/m3 0.13 mg/m3 25.17 C 33.94 % 4.84 m/s 118.74 Deg 0.3 ug/m3
2021-06-04 10:00 4.36 ug/m3 0.65 ug/m3 113.13 ug/m3 14.13 ug/m3 16.05 ug/m3 0.14 mg/m3 24.46 C 45.44 % 4.21 m/s 114.9 Deg 0.55 ug/m3
2021-06-04 09:00 5.75 ug/m3 0.82 ug/m3 96.92 ug/m3 15.5 ug/m3 17.38 ug/m3 0.14 mg/m3 23.07 C 65.35 % 3.83 m/s 92.58 Deg 1 ug/m3
2021-06-04 08:00 2.96 ug/m3 0.35 ug/m3 93.19 ug/m3 15.7 ug/m3 15.43 ug/m3 0.14 mg/m3 21.41 C 79.47 % 3.45 m/s 88.05 Deg 0.42 ug/m3
2021-06-04 07:00 2.32 ug/m3 0.16 ug/m3 90.04 ug/m3 18.88 ug/m3 17.13 ug/m3 0.14 mg/m3 19.71 C 91.58 % 3.36 m/s 89.24 Deg 0.22 ug/m3
2021-06-04 06:00 2.13 ug/m3 0.03 ug/m3 84.94 ug/m3 22.2 ug/m3 19.95 ug/m3 0.14 mg/m3 18.75 C 96.11 % 2.6 m/s 90.88 Deg 0.07 ug/m3
2021-06-04 05:00 1.92 ug/m3 0.02 ug/m3 86.31 ug/m3 18.25 ug/m3 17.23 ug/m3 0.13 mg/m3 18.53 C 96.43 % 2.5 m/s 88.51 Deg 0.02 ug/m3
2021-06-04 04:00 1.48 ug/m3 0.11 ug/m3 95.87 ug/m3 16.78 ug/m3 12.95 ug/m3 0.14 mg/m3 18.72 C 95.8 % 2.88 m/s 84.33 Deg 0.01 ug/m3
2021-06-04 03:00 2.02 ug/m3 0.14 ug/m3 94.2 ug/m3 13.88 ug/m3 10.25 ug/m3 0.13 mg/m3 18.87 C 94.82 % 2.22 m/s 76.93 Deg -0 ug/m3
2021-06-04 02:00 2.5 ug/m3 0.18 ug/m3 94.52 ug/m3 13.28 ug/m3 12.25 ug/m3 0.13 mg/m3 19.02 C 92.71 % 2.12 m/s 71.96 Deg 0.01 ug/m3
2021-06-04 01:00 1.91 ug/m3 0.11 ug/m3 95.22 ug/m3 13.2 ug/m3 13.6 ug/m3 0.14 mg/m3 19.13 C 91.42 % 2.09 m/s 77.74 Deg 0.01 ug/m3
2021-06-04 00:00 1.89 ug/m3 0.13 ug/m3 100.08 ug/m3 13.88 ug/m3 12.7 ug/m3 0.14 mg/m3 19.38 C 90.33 % 2.63 m/s 97.34 Deg 0.01 ug/m3
2021-06-03 23:00 1.94 ug/m3 0.11 ug/m3 103.32 ug/m3 13.95 ug/m3 13.83 ug/m3 0.14 mg/m3 19.63 C 89.45 % 3.8 m/s 100.56 Deg 0.01 ug/m3
2021-06-03 22:00 1.89 ug/m3 0.12 ug/m3 104.88 ug/m3 14.88 ug/m3 12.58 ug/m3 0.14 mg/m3 19.78 C 88.59 % 4.55 m/s 104.84 Deg 0.02 ug/m3
2021-06-03 21:00 1.71 ug/m3 0.12 ug/m3 109.97 ug/m3 14.15 ug/m3 13.8 ug/m3 0.14 mg/m3 20.04 C 84.69 % 6 m/s 99.04 Deg 0.01 ug/m3
2021-06-03 20:00 3 ug/m3 0.14 ug/m3 109.78 ug/m3 12.83 ug/m3 12.9 ug/m3 0.15 mg/m3 20.79 C 71.18 % 4.6 m/s 99.39 Deg 0.02 ug/m3
2021-06-03 19:00 6.37 ug/m3 0.36 ug/m3 109.74 ug/m3 25.93 ug/m3 10.15 ug/m3 0.15 mg/m3 21.63 C 63.87 % 5.26 m/s 111.82 Deg 0.13 ug/m3
2021-06-03 18:00 7.21 ug/m3 0.5 ug/m3 113.01 ug/m3 28.53 ug/m3 13.75 ug/m3 0.15 mg/m3 22.83 C 60.21 % 5.08 m/s 111.66 Deg 0.49 ug/m3
2021-06-03 17:00 5 ug/m3 0.69 ug/m3 117.84 ug/m3 18.15 ug/m3 17.68 ug/m3 0.14 mg/m3 23.53 C 52.66 % 5.63 m/s 112.03 Deg 0.48 ug/m3
2021-06-03 16:00 3.59 ug/m3 0.62 ug/m3 118.78 ug/m3 18.58 ug/m3 15.73 ug/m3 0.14 mg/m3 23.85 C 52.61 % 5.91 m/s 106.02 Deg 0.38 ug/m3
2021-06-03 15:00 3.81 ug/m3 0.52 ug/m3 120.72 ug/m3 19.88 ug/m3 14.73 ug/m3 0.14 mg/m3 23.89 C 53.41 % 6.44 m/s 108.71 Deg 0.43 ug/m3
2021-06-03 14:00 3.28 ug/m3 0.43 ug/m3 122.29 ug/m3 10.68 ug/m3 15.08 ug/m3 0.14 mg/m3 23.7 C 51.96 % 7.31 m/s 102.36 Deg 0.37 ug/m3
2021-06-03 13:00 2.94 ug/m3 0.4 ug/m3 122.02 ug/m3 21.03 ug/m3 11.23 ug/m3 0.14 mg/m3 23.74 C 51.07 % 6.35 m/s 104.72 Deg 0.3 ug/m3
2021-06-03 12:00 2.1 ug/m3 0.39 ug/m3 121.58 ug/m3 33.15 ug/m3 7.13 ug/m3 0.13 mg/m3 23.51 C 45.92 % 6.62 m/s 107.29 Deg 0.16 ug/m3
2021-06-03 11:00 2.55 ug/m3 0.55 ug/m3 120.61 ug/m3 16.05 ug/m3 13.18 ug/m3 0.14 mg/m3 22.93 C 54.1 % 7.1 m/s 101.71 Deg 0.3 ug/m3
2021-06-03 10:00 3.32 ug/m3 0.69 ug/m3 119.05 ug/m3 20.5 ug/m3 15.8 ug/m3 0.14 mg/m3 21.89 C 69.47 % 7.44 m/s 83.67 Deg 0.39 ug/m3
2021-06-03 09:00 5.41 ug/m3 0.86 ug/m3 114.96 ug/m3 5.13 ug/m3 7.55 ug/m3 0.14 mg/m3 22.01 C 68.83 % 5.78 m/s 88.4 Deg 0.7 ug/m3
2021-06-03 08:00 6.18 ug/m3 0.49 ug/m3 109.28 ug/m3 0 ug/m3 4.8 ug/m3 0.15 mg/m3 21.03 C 76.36 % 5.89 m/s 85.3 Deg 0.7 ug/m3
2021-06-03 07:00 1.95 ug/m3 0.24 ug/m3 111.6 ug/m3 6.1 ug/m3 6.33 ug/m3 0.14 mg/m3 20.13 C 80.45 % 6.71 m/s 86.96 Deg 0.12 ug/m3
2021-06-03 06:00 5.33 ug/m3 0.3 ug/m3 102.5 ug/m3 19.8 ug/m3 12.18 ug/m3 0.15 mg/m3 19.14 C 84.82 % 4.31 m/s 82.21 Deg 0.14 ug/m3
2021-06-03 05:00 3.23 ug/m3 0.18 ug/m3 101.24 ug/m3 19.85 ug/m3 9.7 ug/m3 0.14 mg/m3 18.73 C 88.01 % 3.47 m/s 86.89 Deg 0.01 ug/m3
2021-06-03 04:00 3.04 ug/m3 0.16 ug/m3 102.75 ug/m3 15.35 ug/m3 11.95 ug/m3 0.14 mg/m3 18.87 C 88.18 % 4.1 m/s 88.6 Deg 0.01 ug/m3
2021-06-03 03:00 2.87 ug/m3 0.15 ug/m3 104.83 ug/m3 16.23 ug/m3 12.68 ug/m3 0.14 mg/m3 18.99 C 88.41 % 4.89 m/s 83.74 Deg 0.01 ug/m3
2021-06-03 02:00 1.3 ug/m3 0.06 ug/m3 105.5 ug/m3 17.23 ug/m3 12.9 ug/m3 0.13 mg/m3 18.99 C 88.99 % 4.21 m/s 82.89 Deg 0.01 ug/m3
2021-06-03 01:00 1.1 ug/m3 0.06 ug/m3 106.8 ug/m3 26.7 ug/m3 12.6 ug/m3 0.14 mg/m3 19.13 C 89.02 % 4.01 m/s 89.31 Deg 0 ug/m3
2021-06-03 00:00 1.7 ug/m3 0.07 ug/m3 107.47 ug/m3 18.45 ug/m3 12.9 ug/m3 0.14 mg/m3 19.25 C 88.5 % 3.97 m/s 91.39 Deg 0.01 ug/m3
2021-06-02 23:00 0.69 ug/m3 -0.01 ug/m3 110.58 ug/m3 20.43 ug/m3 12.18 ug/m3 0.14 mg/m3 19.44 C 87.71 % 5.69 m/s 91.25 Deg 0 ug/m3
2021-06-02 22:00 1.7 ug/m3 0.07 ug/m3 107.4 ug/m3 18.18 ug/m3 13.33 ug/m3 0.14 mg/m3 19.58 C 86.29 % 6.23 m/s 97.48 Deg 0.02 ug/m3
2021-06-02 21:00 2.43 ug/m3 0.08 ug/m3 105.59 ug/m3 17.35 ug/m3 13.28 ug/m3 0.14 mg/m3 19.66 C 84.93 % 7.63 m/s 108.69 Deg 0.01 ug/m3
2021-06-02 20:00 5.29 ug/m3 0.16 ug/m3 104.24 ug/m3 18.1 ug/m3 12.5 ug/m3 0.14 mg/m3 19.89 C 82.25 % 7.83 m/s 109.65 Deg 0.02 ug/m3
2021-06-02 19:00 3.84 ug/m3 0.14 ug/m3 109.01 ug/m3 18.3 ug/m3 11.85 ug/m3 0.14 mg/m3 20.45 C 78.7 % 9.11 m/s 112.61 Deg 0.07 ug/m3
2021-06-02 18:00 1.24 ug/m3 0.13 ug/m3 109.26 ug/m3 22.8 ug/m3 12.53 ug/m3 0.14 mg/m3 20.88 C 75.42 % 8.05 m/s 91.35 Deg 0.07 ug/m3
2021-06-02 17:00 2.07 ug/m3 0.26 ug/m3 109.82 ug/m3 18.53 ug/m3 15.58 ug/m3 0.13 mg/m3 21.13 C 74.68 % 8.12 m/s 90.47 Deg 0.18 ug/m3
2021-06-02 16:00 1.54 ug/m3 0.25 ug/m3 110.05 ug/m3 20.58 ug/m3 13.58 ug/m3 0.13 mg/m3 21.61 C 71.62 % 7.75 m/s 86.89 Deg 0.1 ug/m3
2021-06-02 15:00 3.26 ug/m3 0.28 ug/m3 113.07 ug/m3 26.25 ug/m3 12.6 ug/m3 0.13 mg/m3 22.59 C 61.3 % 7.35 m/s 101.82 Deg 0.28 ug/m3
2021-06-02 14:00 4.95 ug/m3 0.23 ug/m3 113.28 ug/m3 28.15 ug/m3 13.43 ug/m3 0.13 mg/m3 22.71 C 57.43 % 7.09 m/s 108.88 Deg 0.56 ug/m3
2021-06-02 13:00 4.35 ug/m3 0.29 ug/m3 112.12 ug/m3 28.53 ug/m3 13.78 ug/m3 0.13 mg/m3 22.81 C 59.18 % 6.9 m/s 115.97 Deg 0.48 ug/m3
2021-06-02 12:00 4.64 ug/m3 0.31 ug/m3 106.05 ug/m3 33.33 ug/m3 15.3 ug/m3 0.15 mg/m3 22.8 C 72.78 % 8.13 m/s 115.75 Deg 0.74 ug/m3
2021-06-02 11:00 5.68 ug/m3 0.27 ug/m3 102.66 ug/m3 25.45 ug/m3 12.5 ug/m3 0.15 mg/m3 22.26 C 74.83 % 7.41 m/s 119.01 Deg 0.76 ug/m3
2021-06-02 10:00 2.93 ug/m3 0.12 ug/m3 104.11 ug/m3 22.68 ug/m3 16.13 ug/m3 0.15 mg/m3 21.38 C 83.15 % 8.29 m/s 110.17 Deg 0.37 ug/m3
2021-06-02 09:00 5.11 ug/m3 -0 ug/m3 96.31 ug/m3 23.18 ug/m3 20.03 ug/m3 0.15 mg/m3 20.97 C 84.05 % 7.76 m/s 112.81 Deg 0.45 ug/m3
2021-06-02 08:00 11.3 ug/m3 0.19 ug/m3 81.78 ug/m3 24.9 ug/m3 16.4 ug/m3 0.16 mg/m3 20.91 C 86.18 % 4.8 m/s 121.19 Deg 0.93 ug/m3
2021-06-02 07:00 8.62 ug/m3 -0.01 ug/m3 79.89 ug/m3 19.85 ug/m3 15.25 ug/m3 0.16 mg/m3 20.36 C 92.78 % 5.1 m/s 115.04 Deg 0.54 ug/m3
2021-06-02 06:00 3.89 ug/m3 -0.04 ug/m3 77.6 ug/m3 18.5 ug/m3 15.75 ug/m3 0.14 mg/m3 19.93 C 95.32 % 4.07 m/s 107.7 Deg 0.09 ug/m3
2021-06-02 05:00 2.96 ug/m3 -0.02 ug/m3 72.53 ug/m3 17.43 ug/m3 17.3 ug/m3 0.14 mg/m3 19.82 C 94.74 % 3.04 m/s 105.39 Deg 0.02 ug/m3
2021-06-02 04:00 1.72 ug/m3 -0 ug/m3 73.95 ug/m3 19.7 ug/m3 15.78 ug/m3 0.14 mg/m3 19.77 C 94.71 % 4.03 m/s 112.01 Deg 0.01 ug/m3
2021-06-02 03:00 2.08 ug/m3 -0.03 ug/m3 75.47 ug/m3 16.1 ug/m3 17.73 ug/m3 0.13 mg/m3 19.84 C 93.97 % 4.46 m/s 114.41 Deg 0.02 ug/m3
2021-06-02 02:00 0.59 ug/m3 -0.02 ug/m3 79.28 ug/m3 20.7 ug/m3 18 ug/m3 0.12 mg/m3 19.84 C 92.8 % 3.76 m/s 103.7 Deg 0.01 ug/m3
2021-06-02 01:00 4.1 ug/m3 0 ug/m3 74.04 ug/m3 20.8 ug/m3 15 ug/m3 0.14 mg/m3 19.86 C 90.95 % 3.52 m/s 91.24 Deg 0.02 ug/m3
2021-06-02 00:00 8.31 ug/m3 0.14 ug/m3 71.04 ug/m3 27.48 ug/m3 17.55 ug/m3 0.14 mg/m3 20.09 C 86.95 % 3.32 m/s 115.2 Deg 0.02 ug/m3
2021-06-01 23:00 5.03 ug/m3 0.03 ug/m3 72.79 ug/m3 22.35 ug/m3 19.38 ug/m3 0.15 mg/m3 20.02 C 88.17 % 2.44 m/s 101.95 Deg 0.01 ug/m3
2021-06-01 22:00 1.76 ug/m3 -0.02 ug/m3 80.08 ug/m3 22.83 ug/m3 18.8 ug/m3 0.14 mg/m3 20.1 C 88.49 % 2.4 m/s 121.24 Deg 0.01 ug/m3
2021-06-01 21:00 1 ug/m3 0.07 ug/m3 88.64 ug/m3 22.98 ug/m3 17.6 ug/m3 0.14 mg/m3 20.09 C 89.96 % 3.55 m/s 140.09 Deg 0 ug/m3
2021-06-01 20:00 0.7 ug/m3 0.08 ug/m3 92.21 ug/m3 20.75 ug/m3 18.88 ug/m3 0.14 mg/m3 20.11 C 90.95 % 3.41 m/s 174.85 Deg 0.01 ug/m3
2021-06-01 19:00 1.36 ug/m3 0.2 ug/m3 94.85 ug/m3 25.88 ug/m3 16.85 ug/m3 0.15 mg/m3 20.35 C 87.34 % 4.42 m/s 179.7 Deg 0.03 ug/m3
2021-06-01 18:00 0.78 ug/m3 0.18 ug/m3 99.58 ug/m3 23.3 ug/m3 18.78 ug/m3 0.14 mg/m3 20.66 C 84.54 % 4.71 m/s 176.14 Deg 0.02 ug/m3
2021-06-01 17:00 0.78 ug/m3 0.21 ug/m3 103.45 ug/m3 21.13 ug/m3 16.93 ug/m3 0.14 mg/m3 20.65 C 85.54 % 4.31 m/s 172.54 Deg 0.05 ug/m3
2021-06-01 16:00 0.83 ug/m3 0.31 ug/m3 105.91 ug/m3 19.18 ug/m3 20.65 ug/m3 0.14 mg/m3 20.96 C 83.09 % 4.44 m/s 175.06 Deg 0.05 ug/m3
2021-06-01 15:00 1.57 ug/m3 0.41 ug/m3 115.72 ug/m3 20.63 ug/m3 20.1 ug/m3 0.14 mg/m3 21.23 C 83.05 % 2.9 m/s 252.63 Deg 0.09 ug/m3
2021-06-01 14:00 1.83 ug/m3 0.45 ug/m3 118.99 ug/m3 22.4 ug/m3 20.7 ug/m3 0.15 mg/m3 21.64 C 81.57 % 1.92 m/s 236.44 Deg 0.1 ug/m3
2021-06-01 13:00 2.36 ug/m3 0.45 ug/m3 121.41 ug/m3 23.08 ug/m3 19.2 ug/m3 0.15 mg/m3 21.14 C 83.02 % 3.09 m/s 270.84 Deg 0.14 ug/m3
2021-06-01 12:00 2.85 ug/m3 0.34 ug/m3 115.64 ug/m3 25.1 ug/m3 21.18 ug/m3 0.15 mg/m3 21.58 C 80.54 % 2.68 m/s 236.81 Deg 0.23 ug/m3
2021-06-01 11:00 3.68 ug/m3 0.47 ug/m3 108.35 ug/m3 21.13 ug/m3 18.7 ug/m3 0.15 mg/m3 21.94 C 75.52 % 2.76 m/s 164.01 Deg 0.35 ug/m3
2021-06-01 10:00 3.44 ug/m3 0.4 ug/m3 102.86 ug/m3 18.63 ug/m3 16.33 ug/m3 0.15 mg/m3 21.44 C 79.22 % 3.26 m/s 103.69 Deg 0.35 ug/m3
2021-06-01 09:00 1.44 ug/m3 0.2 ug/m3 101.7 ug/m3 17.48 ug/m3 16.35 ug/m3 0.15 mg/m3 20.91 C 83.45 % 4.52 m/s 73.69 Deg 0.12 ug/m3
2021-06-01 08:00 1.15 ug/m3 0.31 ug/m3 100.36 ug/m3 18.93 ug/m3 16.43 ug/m3 0.15 mg/m3 20.49 C 85.65 % 5.09 m/s 61.29 Deg 0.09 ug/m3
2021-06-01 07:00 3.96 ug/m3 0.46 ug/m3 102.85 ug/m3 23.25 ug/m3 18.13 ug/m3 0.15 mg/m3 19.64 C 88.54 % 4.61 m/s 58.47 Deg 0.27 ug/m3
2021-06-01 06:00 2.08 ug/m3 0.27 ug/m3 98.46 ug/m3 25.93 ug/m3 23.05 ug/m3 0.14 mg/m3 18.79 C 92.85 % 2.4 m/s 52.52 Deg 0.04 ug/m3
2021-06-01 05:00 2.39 ug/m3 0.4 ug/m3 91.66 ug/m3 27.9 ug/m3 23.15 ug/m3 0.14 mg/m3 18.3 C 93.13 % 1.41 m/s 48.48 Deg 0.01 ug/m3
2021-06-01 04:00 2.97 ug/m3 0.48 ug/m3 88.9 ug/m3 21.8 ug/m3 20.15 ug/m3 0.14 mg/m3 18.3 C 92.44 % 1.4 m/s 53.99 Deg 0.01 ug/m3
2021-06-01 03:00 3.38 ug/m3 0.49 ug/m3 90.31 ug/m3 21.48 ug/m3 18.4 ug/m3 0.14 mg/m3 18.43 C 91.19 % 1.58 m/s 48.72 Deg 0.02 ug/m3
2021-06-01 02:00 4.41 ug/m3 0.65 ug/m3 92.26 ug/m3 19.85 ug/m3 18.33 ug/m3 0.13 mg/m3 18.65 C 90.63 % 1.08 m/s 31.32 Deg 0.02 ug/m3
2021-06-01 01:00 6.8 ug/m3 0.55 ug/m3 86.87 ug/m3 18.5 ug/m3 15.6 ug/m3 0.14 mg/m3 18.87 C 89.35 % 1.12 m/s 209.82 Deg 0.02 ug/m3
2021-06-01 00:00 3.96 ug/m3 0.4 ug/m3 95.04 ug/m3 17.75 ug/m3 15.6 ug/m3 0.14 mg/m3 18.92 C 88.67 % 1.75 m/s 194.01 Deg 0.01 ug/m3
2021-05-31 23:00 3.43 ug/m3 0.45 ug/m3 102.06 ug/m3 18.48 ug/m3 14.48 ug/m3 0.14 mg/m3 19.01 C 87.68 % 1.94 m/s 329.4 Deg 0.01 ug/m3
2021-05-31 22:00 2.78 ug/m3 0.41 ug/m3 111.35 ug/m3 14.68 ug/m3 15.15 ug/m3 0.14 mg/m3 19.19 C 88.07 % 2.09 m/s 330.53 Deg 0 ug/m3
2021-05-31 21:00 1.28 ug/m3 0.26 ug/m3 114.31 ug/m3 13.08 ug/m3 16.18 ug/m3 0.13 mg/m3 19.29 C 87.88 % 2.68 m/s 336.98 Deg 0 ug/m3
2021-05-31 20:00 1.28 ug/m3 0.29 ug/m3 109.61 ug/m3 21.18 ug/m3 19.7 ug/m3 0.13 mg/m3 19.64 C 83.62 % 3.13 m/s 307.26 Deg 0.01 ug/m3
2021-05-31 19:00 4.26 ug/m3 0.61 ug/m3 110.4 ug/m3 26.3 ug/m3 18.63 ug/m3 0.13 mg/m3 20.22 C 82.58 % 3.92 m/s 249.51 Deg 0.43 ug/m3
2021-05-31 18:00 3.75 ug/m3 0.37 ug/m3 105.51 ug/m3 21.7 ug/m3 18.43 ug/m3 0.14 mg/m3 20.52 C 85.96 % 4.55 m/s 244.81 Deg 1.31 ug/m3
2021-05-31 17:00 1.18 ug/m3 0.41 ug/m3 116.1 ug/m3 26.9 ug/m3 18.87 ug/m3 0.14 mg/m3 20.78 C 84.82 % 4.23 m/s 244.01 Deg 0.06 ug/m3
2021-05-31 16:00 1.44 ug/m3 0.36 ug/m3 116.22 ug/m3 17.13 ug/m3 16.75 ug/m3 0.14 mg/m3 20.82 C 84.59 % 3.42 m/s 226.28 Deg 0.12 ug/m3
2021-05-31 15:00 0.83 ug/m3 0.49 ug/m3 112.14 ug/m3 16.45 ug/m3 16.68 ug/m3 0.14 mg/m3 22.43 C 70.86 % 2.58 m/s 284.88 Deg 0.04 ug/m3
2021-05-31 14:00 1 ug/m3 0.57 ug/m3 115.2 ug/m3 22.88 ug/m3 19.83 ug/m3 0.14 mg/m3 23.01 C 62.18 % 2.11 m/s 199.02 Deg 0.05 ug/m3
2021-05-31 13:00 0.98 ug/m3 0.52 ug/m3 109.53 ug/m3 24.75 ug/m3 21.4 ug/m3 0.14 mg/m3 22.06 C 73.53 % 2.8 m/s 22.46 Deg 0.06 ug/m3
2021-05-31 12:00 1.51 ug/m3 0.48 ug/m3 109.71 ug/m3 24.35 ug/m3 19.95 ug/m3 0.14 mg/m3 21.26 C 80.1 % 2.6 m/s 15.1 Deg 0.15 ug/m3
2021-05-31 11:00 1.96 ug/m3 0.41 ug/m3 108.33 ug/m3 24.13 ug/m3 20 ug/m3 0.14 mg/m3 20.7 C 81.82 % 2.75 m/s 42.25 Deg 0.21 ug/m3
2021-05-31 10:00 1.69 ug/m3 0.24 ug/m3 98.16 ug/m3 26.73 ug/m3 18.03 ug/m3 0.14 mg/m3 19.86 C 84.9 % 2.96 m/s 194.17 Deg 0.19 ug/m3
2021-05-31 09:00 2.21 ug/m3 0.17 ug/m3 92.42 ug/m3 26.67 ug/m3 16.37 ug/m3 0.14 mg/m3 19.81 C 84.95 % 2.32 m/s 323.37 Deg 0.28 ug/m3
2021-05-31 08:00 2.76 ug/m3 0.13 ug/m3 87.28 ug/m3 24.4 ug/m3 16.5 ug/m3 0.13 mg/m3 19.26 C 87.95 % 3.12 m/s 298.94 Deg 0.26 ug/m3
2021-05-31 07:00 2.77 ug/m3 0.05 ug/m3 83.44 ug/m3 25.08 ug/m3 15.8 ug/m3 0.14 mg/m3 19.01 C 89.31 % 2.73 m/s 274.79 Deg 0.16 ug/m3
2021-05-31 06:00 1.52 ug/m3 0.06 ug/m3 86.36 ug/m3 26.25 ug/m3 14.83 ug/m3 0.13 mg/m3 18.7 C 91.17 % 2.77 m/s 270.27 Deg 0.03 ug/m3
2021-05-31 05:00 0.91 ug/m3 0.04 ug/m3 89.42 ug/m3 25.23 ug/m3 17.3 ug/m3 0.13 mg/m3 18.68 C 91.86 % 2.29 m/s 258.33 Deg 0 ug/m3
2021-05-31 04:00 0.79 ug/m3 0.09 ug/m3 90.87 ug/m3 25.25 ug/m3 13.03 ug/m3 0.13 mg/m3 18.61 C 91.33 % 2.14 m/s 265.2 Deg 0.01 ug/m3
2021-05-31 03:00 0.85 ug/m3 0.06 ug/m3 92.63 ug/m3 25.63 ug/m3 13.48 ug/m3 0.13 mg/m3 18.62 C 91.7 % 2.05 m/s 286.33 Deg 0 ug/m3
2021-05-31 02:00 0.7 ug/m3 0.09 ug/m3 92.84 ug/m3 20.68 ug/m3 11.13 ug/m3 0.12 mg/m3 18.6 C 93.71 % 2.29 m/s 291.7 Deg 0.01 ug/m3
2021-05-31 01:00 1.34 ug/m3 0.11 ug/m3 83.77 ug/m3 26.2 ug/m3 11.4 ug/m3 0.14 mg/m3 18.59 C 94.75 % 4.14 m/s 259.92 Deg 0.02 ug/m3
2021-05-31 00:00 0.22 ug/m3 0.05 ug/m3 87.26 ug/m3 24.4 ug/m3 12.6 ug/m3 0.14 mg/m3 18.7 C 93.71 % 4.1 m/s 250.41 Deg 0 ug/m3
2021-05-30 23:00 0.67 ug/m3 0.1 ug/m3 91.32 ug/m3 25 ug/m3 12.55 ug/m3 0.14 mg/m3 18.78 C 91.41 % 4.3 m/s 252.8 Deg 0.01 ug/m3
2021-05-30 22:00 1.25 ug/m3 0.13 ug/m3 93.88 ug/m3 25.03 ug/m3 13.75 ug/m3 0.14 mg/m3 18.73 C 91 % 3.27 m/s 255.13 Deg 0.02 ug/m3
2021-05-30 21:00 1.65 ug/m3 0.22 ug/m3 108.24 ug/m3 24.83 ug/m3 15.2 ug/m3 0.14 mg/m3 18.8 C 90.77 % 4.09 m/s 253.17 Deg 0.01 ug/m3
2021-05-30 20:00 3.14 ug/m3 0.29 ug/m3 110.31 ug/m3 28.03 ug/m3 16.98 ug/m3 0.14 mg/m3 18.86 C 90.48 % 3.22 m/s 283.64 Deg 0.03 ug/m3
2021-05-30 19:00 12.82 ug/m3 0.49 ug/m3 91.11 ug/m3 26.55 ug/m3 15.75 ug/m3 0.15 mg/m3 19.43 C 88.61 % 4.61 m/s 275.69 Deg 0.45 ug/m3
2021-05-30 18:00 5.56 ug/m3 0.44 ug/m3 107.96 ug/m3 21.35 ug/m3 15.65 ug/m3 0.14 mg/m3 19.75 C 87.35 % 5.53 m/s 267.23 Deg 0.45 ug/m3
2021-05-30 17:00 0.24 ug/m3 0.21 ug/m3 101.7 ug/m3 18.33 ug/m3 15.65 ug/m3 0.14 mg/m3 19.99 C 85.75 % 5.87 m/s 265.22 Deg 0.02 ug/m3
2021-05-30 16:00 0.47 ug/m3 0.32 ug/m3 104.59 ug/m3 22.53 ug/m3 15 ug/m3 0.14 mg/m3 20.06 C 85.4 % 6.08 m/s 262.06 Deg 0.03 ug/m3
2021-05-30 15:00 1.08 ug/m3 0.47 ug/m3 118.06 ug/m3 18.33 ug/m3 16.15 ug/m3 0.14 mg/m3 19.96 C 87.17 % 5.83 m/s 263.49 Deg 0.12 ug/m3
2021-05-30 14:00 2.81 ug/m3 0.62 ug/m3 114.44 ug/m3 27.88 ug/m3 15.18 ug/m3 0.15 mg/m3 20.27 C 86 % 5.5 m/s 273.3 Deg 0.53 ug/m3
2021-05-30 13:00 2.32 ug/m3 0.67 ug/m3 130.21 ug/m3 30.65 ug/m3 16.28 ug/m3 0.15 mg/m3 20.39 C 84.26 % 4.86 m/s 283.91 Deg 0.32 ug/m3
2021-05-30 12:00 1.28 ug/m3 0.69 ug/m3 127.14 ug/m3 24.9 ug/m3 16.88 ug/m3 0.15 mg/m3 20.37 C 84.41 % 4.63 m/s 284.79 Deg 0.1 ug/m3
2021-05-30 11:00 6.11 ug/m3 0.88 ug/m3 110.09 ug/m3 22.73 ug/m3 19.23 ug/m3 0.15 mg/m3 20.31 C 83.83 % 4.4 m/s 285.72 Deg 1.21 ug/m3
2021-05-30 10:00 7.53 ug/m3 1.47 ug/m3 116.43 ug/m3 21.1 ug/m3 18.73 ug/m3 0.16 mg/m3 20.22 C 84.27 % 4.21 m/s 278.14 Deg 1.22 ug/m3
2021-05-30 09:00 14.77 ug/m3 1.4 ug/m3 99.65 ug/m3 24.8 ug/m3 15.3 ug/m3 0.16 mg/m3 19.87 C 87.5 % 3.57 m/s 279.01 Deg 2.57 ug/m3
2021-05-30 08:00 10.1 ug/m3 0.8 ug/m3 103.65 ug/m3 19.75 ug/m3 14.38 ug/m3 0.15 mg/m3 20.04 C 81.53 % 3.32 m/s 271.19 Deg 1.53 ug/m3
2021-05-30 07:00 5.54 ug/m3 0.32 ug/m3 99.39 ug/m3 18.73 ug/m3 15.98 ug/m3 0.15 mg/m3 19.24 C 89.98 % 2.64 m/s 276.39 Deg 0.56 ug/m3
2021-05-30 06:00 2.41 ug/m3 0.07 ug/m3 91.61 ug/m3 14.45 ug/m3 14.7 ug/m3 0.15 mg/m3 18.67 C 96.85 % 2.28 m/s 274.41 Deg 0.08 ug/m3
2021-05-30 05:00 1.22 ug/m3 0.03 ug/m3 98.64 ug/m3 8.03 ug/m3 13.73 ug/m3 0.15 mg/m3 18.74 C 97.95 % 2.26 m/s 260.96 Deg 0.01 ug/m3
2021-05-30 04:00 0.84 ug/m3 0.02 ug/m3 103.94 ug/m3 9.33 ug/m3 13.68 ug/m3 0.15 mg/m3 18.91 C 98.72 % 1.3 m/s 296.92 Deg 0.01 ug/m3
2021-05-30 03:00 0.88 ug/m3 0.06 ug/m3 114.65 ug/m3 17.13 ug/m3 13.1 ug/m3 0.15 mg/m3 19.41 C 94.42 % 1.14 m/s 321.85 Deg 0.01 ug/m3
2021-05-30 02:00 3.11 ug/m3 0.37 ug/m3 110.74 ug/m3 19.33 ug/m3 15.3 ug/m3 0.14 mg/m3 19.57 C 81.07 % 1.16 m/s 313.28 Deg 0.01 ug/m3
2021-05-30 01:00 4.41 ug/m3 0.21 ug/m3 98.98 ug/m3 17.3 ug/m3 16.7 ug/m3 0.16 mg/m3 19.42 C 87 % 1.6 m/s 313.4 Deg 0.01 ug/m3
2021-05-30 00:00 6.07 ug/m3 0.3 ug/m3 102.3 ug/m3 19.48 ug/m3 15.43 ug/m3 0.17 mg/m3 20.07 C 77.67 % 1.18 m/s 259.57 Deg 0.02 ug/m3
2021-05-29 23:00 7.65 ug/m3 0.37 ug/m3 110.31 ug/m3 23.05 ug/m3 18.23 ug/m3 0.19 mg/m3 20.56 C 67.06 % 0.95 m/s 165.8 Deg 0.01 ug/m3
2021-05-29 22:00 8.43 ug/m3 0.36 ug/m3 100.66 ug/m3 27.83 ug/m3 17.95 ug/m3 0.18 mg/m3 20.24 C 76.66 % 1.5 m/s 114.61 Deg 0.02 ug/m3
2021-05-29 21:00 10.76 ug/m3 0.42 ug/m3 93.99 ug/m3 24.9 ug/m3 15.25 ug/m3 0.18 mg/m3 20.35 C 80.24 % 1.36 m/s 111.98 Deg 0.02 ug/m3
2021-05-29 20:00 7.68 ug/m3 0.27 ug/m3 92.61 ug/m3 32.65 ug/m3 16 ug/m3 0.16 mg/m3 20.31 C 85.63 % 1.64 m/s 75.38 Deg 0.04 ug/m3
2021-05-29 19:00 5.29 ug/m3 0.38 ug/m3 109.82 ug/m3 27 ug/m3 14.18 ug/m3 0.15 mg/m3 22.03 C 74.14 % 1.29 m/s 79.11 Deg 0.1 ug/m3
2021-05-29 18:00 4.67 ug/m3 0.46 ug/m3 115.87 ug/m3 29.58 ug/m3 17.83 ug/m3 0.15 mg/m3 22.88 C 65.76 % 1.8 m/s 147.66 Deg 0.24 ug/m3
2021-05-29 17:00 6.29 ug/m3 0.52 ug/m3 114.86 ug/m3 29.23 ug/m3 20.5 ug/m3 0.16 mg/m3 22.94 C 62.65 % 2.18 m/s 107.9 Deg 0.42 ug/m3
2021-05-29 16:00 6.72 ug/m3 0.46 ug/m3 113.61 ug/m3 24.83 ug/m3 18.65 ug/m3 0.16 mg/m3 22.29 C 71.95 % 4.59 m/s 119.38 Deg 0.32 ug/m3
2021-05-29 15:00 3.35 ug/m3 0.68 ug/m3 126.91 ug/m3 32.98 ug/m3 20.38 ug/m3 0.15 mg/m3 24.03 C 62.31 % 3.58 m/s 128.91 Deg 0.2 ug/m3
2021-05-29 14:00 3.68 ug/m3 0.88 ug/m3 125.63 ug/m3 24.93 ug/m3 19.4 ug/m3 0.15 mg/m3 24.57 C 63.65 % 3.17 m/s 129.31 Deg 0.36 ug/m3
2021-05-29 13:00 2.58 ug/m3 0.65 ug/m3 115.97 ug/m3 21.58 ug/m3 14.3 ug/m3 0.15 mg/m3 23.06 C 72.21 % 5.86 m/s 91.23 Deg 0.29 ug/m3
2021-05-29 12:00 1.8 ug/m3 0.72 ug/m3 111.25 ug/m3 22 ug/m3 14.38 ug/m3 0.14 mg/m3 24.08 C 61.31 % 5.2 m/s 98.92 Deg 0.18 ug/m3
2021-05-29 11:00 2.16 ug/m3 0.81 ug/m3 112.86 ug/m3 19.7 ug/m3 14.53 ug/m3 0.14 mg/m3 23.42 C 60.59 % 7.52 m/s 103.63 Deg 0.24 ug/m3
2021-05-29 10:00 1.88 ug/m3 0.63 ug/m3 114.91 ug/m3 24.08 ug/m3 15.15 ug/m3 0.14 mg/m3 21.7 C 73.41 % 8.59 m/s 85.54 Deg 0.19 ug/m3
2021-05-29 09:00 2.11 ug/m3 0.43 ug/m3 112.6 ug/m3 31.2 ug/m3 15.8 ug/m3 0.14 mg/m3 20.91 C 78.55 % 7.83 m/s 77.6 Deg 0.23 ug/m3
2021-05-29 08:00 4.95 ug/m3 0.5 ug/m3 107.25 ug/m3 35.73 ug/m3 11.87 ug/m3 0.14 mg/m3 20.49 C 78.5 % 8.48 m/s 71.44 Deg 0.65 ug/m3
2021-05-29 07:00 3.08 ug/m3 0.56 ug/m3 108.8 ug/m3 23.73 ug/m3 11.7 ug/m3 0.14 mg/m3 20.02 C 76.07 % 7.23 m/s 76.81 Deg 0.2 ug/m3
2021-05-29 06:00 4.29 ug/m3 0.49 ug/m3 104.74 ug/m3 15.55 ug/m3 12.45 ug/m3 0.14 mg/m3 19.11 C 80.87 % 6.18 m/s 71.26 Deg 0.11 ug/m3
2021-05-29 05:00 3.12 ug/m3 0.25 ug/m3 103.31 ug/m3 14.98 ug/m3 13.08 ug/m3 0.14 mg/m3 18.81 C 85.44 % 5.71 m/s 62.08 Deg 0.01 ug/m3
2021-05-29 04:00 2.46 ug/m3 0.18 ug/m3 102.67 ug/m3 19.63 ug/m3 10.98 ug/m3 0.21 mg/m3 18.83 C 89.78 % 6.39 m/s 58.18 Deg 0.01 ug/m3
2021-05-29 03:00 1.69 ug/m3 0.15 ug/m3 102.26 ug/m3 21.35 ug/m3 10.28 ug/m3 0.14 mg/m3 18.8 C 93.2 % 6.48 m/s 64.48 Deg 0.02 ug/m3
2021-05-29 02:00 6.86 ug/m3 0.28 ug/m3 98.64 ug/m3 19.98 ug/m3 11.58 ug/m3 0.13 mg/m3 19 C 93.64 % 5.45 m/s 59.55 Deg 0.03 ug/m3
2021-05-29 01:00 4.7 ug/m3 0.25 ug/m3 97.59 ug/m3 17.3 ug/m3 14.3 ug/m3 0.14 mg/m3 19.4 C 92.97 % 5.21 m/s 60.02 Deg 0.01 ug/m3
2021-05-29 00:00 5.08 ug/m3 0.27 ug/m3 95.81 ug/m3 20 ug/m3 16.55 ug/m3 0.14 mg/m3 19.47 C 92.02 % 5.16 m/s 72.04 Deg 0.02 ug/m3
2021-05-28 23:00 3.28 ug/m3 0.27 ug/m3 102.39 ug/m3 25.4 ug/m3 13.85 ug/m3 0.14 mg/m3 19.69 C 89.29 % 7.92 m/s 66.93 Deg 0.03 ug/m3
2021-05-28 22:00 6.78 ug/m3 0.43 ug/m3 93.6 ug/m3 17.38 ug/m3 12.1 ug/m3 0.13 mg/m3 20.14 C 81.56 % 6.31 m/s 75.32 Deg 0.02 ug/m3
2021-05-28 21:00 1.7 ug/m3 0.36 ug/m3 102.55 ug/m3 19.83 ug/m3 11.98 ug/m3 0.13 mg/m3 20.37 C 74.31 % 8.96 m/s 86.18 Deg 0.02 ug/m3
2021-05-28 20:00 2.06 ug/m3 0.27 ug/m3 100.21 ug/m3 22.23 ug/m3 13.8 ug/m3 0.13 mg/m3 20.21 C 79.67 % 8.79 m/s 91.53 Deg 0.02 ug/m3
2021-05-28 19:00 2.79 ug/m3 0.51 ug/m3 106.43 ug/m3 26.9 ug/m3 6.23 ug/m3 0.13 mg/m3 20.91 C 73.12 % 8.88 m/s 86.88 Deg 0.07 ug/m3
2021-05-28 18:00 2.79 ug/m3 0.73 ug/m3 111.01 ug/m3 20.38 ug/m3 12.13 ug/m3 0.13 mg/m3 22.48 C 55.64 % 7.56 m/s 93.03 Deg 0.11 ug/m3
2021-05-28 17:00 1.9 ug/m3 0.78 ug/m3 113.34 ug/m3 28.97 ug/m3 12.67 ug/m3 0.13 mg/m3 22.94 C 52.94 % 8.76 m/s 93.18 Deg 0.13 ug/m3
2021-05-28 16:00 1.68 ug/m3 0.82 ug/m3 112.91 ug/m3 33.18 ug/m3 13.3 ug/m3 0.13 mg/m3 22.84 C 50.17 % 9.25 m/s 87.24 Deg 0.09 ug/m3
2021-05-28 15:00 1.61 ug/m3 2.12 ug/m3 113.94 ug/m3 28.5 ug/m3 15.4 ug/m3 0.13 mg/m3 23.38 C 52.62 % 7.9 m/s 86.59 Deg 0.14 ug/m3
2021-05-28 14:00 3.13 ug/m3 2.29 ug/m3 123.94 ug/m3 32.5 ug/m3 11.03 ug/m3 0.13 mg/m3 23.26 C 57.6 % 7.73 m/s 75.18 Deg 0.23 ug/m3
2021-05-28 13:00 5.17 ug/m3 105.77 ug/m3 42.49 ug/m3 21.7 ug/m3 13.08 ug/m3 0.14 mg/m3 23.89 C 51 % 6.9 m/s 71.15 Deg 0.65 ug/m3
2021-05-28 12:00 9.89 ug/m3 1.67 ug/m3 83.61 ug/m3 17.43 ug/m3 9.73 ug/m3 0.15 mg/m3 24.13 C 55.06 % 4.05 m/s 72.95 Deg 2.12 ug/m3
2021-05-28 11:00 20.82 ug/m3 1.85 ug/m3 75.17 ug/m3 18.38 ug/m3 10.83 ug/m3 0.15 mg/m3 22.85 C 64.24 % 5.02 m/s 57.35 Deg 6.19 ug/m3
2021-05-28 10:00 27.3 ug/m3 2.61 ug/m3 78.36 ug/m3 14.1 ug/m3 11.97 ug/m3 0.14 mg/m3 21.81 C 62.85 % 4.1 m/s 26.23 Deg 7.36 ug/m3
2021-05-28 09:00 9.86 ug/m3 1.27 ug/m3 97.62 ug/m3 2.13 ug/m3 12.55 ug/m3 0.14 mg/m3 21.73 C 70.24 % 2.35 m/s 198.56 Deg 1.67 ug/m3
2021-05-28 08:00 7.45 ug/m3 0.78 ug/m3 92.71 ug/m3 18.48 ug/m3 11.28 ug/m3 0.14 mg/m3 20.86 C 75.05 % 1.86 m/s 159.71 Deg 0.98 ug/m3
2021-05-28 07:00 3.97 ug/m3 0.1 ug/m3 77.81 ug/m3 21.93 ug/m3 13.5 ug/m3 0.14 mg/m3 19.63 C 91.72 % 1.1 m/s 158.42 Deg 0.2 ug/m3
2021-05-28 06:00 3.48 ug/m3 0.08 ug/m3 77.86 ug/m3 19.4 ug/m3 12.3 ug/m3 0.14 mg/m3 19.42 C 92.58 % 0.88 m/s 227.38 Deg 0.04 ug/m3
2021-05-28 05:00 5 ug/m3 0.14 ug/m3 77.57 ug/m3 10.2 ug/m3 11.38 ug/m3 0.13 mg/m3 19.33 C 91.24 % 1.39 m/s 232.96 Deg 0.02 ug/m3
2021-05-28 04:00 5.15 ug/m3 0.47 ug/m3 91.54 ug/m3 15.55 ug/m3 14.53 ug/m3 0.12 mg/m3 20.61 C 60.76 % 1.38 m/s 216.64 Deg 0.01 ug/m3
2021-05-28 03:00 8.94 ug/m3 0.59 ug/m3 85.8 ug/m3 13.5 ug/m3 14.18 ug/m3 0.13 mg/m3 19.05 C 77.17 % 0.78 m/s 74.4 Deg 0.02 ug/m3
2021-05-28 02:00 3.5 ug/m3 0.04 ug/m3 88.68 ug/m3 15.73 ug/m3 12.88 ug/m3 0.12 mg/m3 19.18 C 93.02 % 2.74 m/s 72.76 Deg 0.02 ug/m3
2021-05-28 01:00 1.04 ug/m3 0.01 ug/m3 101.48 ug/m3 16.6 ug/m3 11.1 ug/m3 0.14 mg/m3 19.39 C 92.01 % 2.15 m/s 344.57 Deg -0 ug/m3
2021-05-28 00:00 0.2 ug/m3 -0 ug/m3 96.05 ug/m3 15.55 ug/m3 12.23 ug/m3 0.14 mg/m3 19.49 C 92.54 % 1.76 m/s 342.87 Deg 0 ug/m3
2021-05-27 23:00 0.99 ug/m3 0.04 ug/m3 92.99 ug/m3 13.93 ug/m3 11.25 ug/m3 0.14 mg/m3 19.6 C 91.66 % 1.3 m/s 316.61 Deg 0 ug/m3
2021-05-27 22:00 -0.06 ug/m3 0.07 ug/m3 100.2 ug/m3 16.35 ug/m3 11.1 ug/m3 0.14 mg/m3 19.89 C 89.86 % 1.03 m/s 245.96 Deg -0 ug/m3
2021-05-27 21:00 0.2 ug/m3 0.05 ug/m3 97.41 ug/m3 57.88 ug/m3 13.23 ug/m3 0.13 mg/m3 19.83 C 88.69 % 0.92 m/s 232.33 Deg -0.01 ug/m3
2021-05-27 20:00 1.52 ug/m3 0.07 ug/m3 97.08 ug/m3 30.83 ug/m3 11.35 ug/m3 0.14 mg/m3 20.04 C 87.13 % 0.89 m/s 228.04 Deg 0.01 ug/m3
2021-05-27 19:00 0.08 ug/m3 0.13 ug/m3 101.68 ug/m3 15.73 ug/m3 11.85 ug/m3 0.13 mg/m3 20.51 C 85.11 % 2.88 m/s 243.84 Deg 0.01 ug/m3
2021-05-27 18:00 0.21 ug/m3 0.21 ug/m3 99.47 ug/m3 14.6 ug/m3 11.25 ug/m3 0.13 mg/m3 21.05 C 80.08 % 3.6 m/s 237.96 Deg 0.01 ug/m3
2021-05-27 17:00 0.66 ug/m3 0.33 ug/m3 105.96 ug/m3 13.8 ug/m3 10.53 ug/m3 0.13 mg/m3 21.54 C 73.63 % 3.9 m/s 219.27 Deg 0.04 ug/m3
2021-05-27 16:00 0.68 ug/m3 0.35 ug/m3 104.95 ug/m3 5.27 ug/m3 12.53 ug/m3 0.13 mg/m3 21.74 C 69.21 % 4.01 m/s 235.43 Deg 0.05 ug/m3
2021-05-27 15:00 0.78 ug/m3 0.32 ug/m3 104.24 ug/m3 -2.35 ug/m3 12.4 ug/m3 0.13 mg/m3 22.44 C 62.53 % 2.51 m/s 222.37 Deg 0.04 ug/m3
2021-05-27 14:00 0.76 ug/m3 0.39 ug/m3 104.62 ug/m3 -0.95 ug/m3 11.85 ug/m3 0.12 mg/m3 22.95 C 45.31 % 2.71 m/s 230.01 Deg 0.03 ug/m3
2021-05-27 13:00 0.79 ug/m3 0.25 ug/m3 101.65 ug/m3 10.25 ug/m3 11.43 ug/m3 0.13 mg/m3 21.25 C 70.94 % 3.59 m/s 237.14 Deg 0.04 ug/m3
2021-05-27 12:00 1.72 ug/m3 0.32 ug/m3 105.21 ug/m3 11.75 ug/m3 12.35 ug/m3 0.13 mg/m3 21.04 C 79.08 % 4.13 m/s 239.35 Deg 0.15 ug/m3
2021-05-27 11:00 1.88 ug/m3 0.58 ug/m3 104.9 ug/m3 3.23 ug/m3 15.85 ug/m3 0.13 mg/m3 21.94 C 63.92 % 2.5 m/s 226.24 Deg 0.14 ug/m3
2021-05-27 10:00 1.67 ug/m3 0.84 ug/m3 100.01 ug/m3 5.4 ug/m3 11.58 ug/m3 0.13 mg/m3 22.47 C 55.87 % 2.3 m/s 222.83 Deg 0.14 ug/m3
2021-05-27 09:00 2.19 ug/m3 0.47 ug/m3 95.59 ug/m3 10.15 ug/m3 9.65 ug/m3 0.13 mg/m3 20.58 C 76.52 % 2.15 m/s 247.2 Deg 0.23 ug/m3
2021-05-27 08:00 2.59 ug/m3 0.12 ug/m3 91.76 ug/m3 15.18 ug/m3 8.55 ug/m3 0.14 mg/m3 19.4 C 90.89 % 3.72 m/s 227.41 Deg 0.29 ug/m3
2021-05-27 07:00 3.17 ug/m3 0.07 ug/m3 85.05 ug/m3 17.93 ug/m3 8.73 ug/m3 0.14 mg/m3 19.15 C 88.63 % 3.76 m/s 207.49 Deg 0.21 ug/m3
2021-05-27 06:00 8.4 ug/m3 0.16 ug/m3 71.63 ug/m3 14.2 ug/m3 7.63 ug/m3 0.15 mg/m3 18.99 C 79.47 % 2.26 m/s 175.93 Deg 0.17 ug/m3
2021-05-27 05:00 4.3 ug/m3 0.11 ug/m3 76.93 ug/m3 11.9 ug/m3 7.73 ug/m3 0.14 mg/m3 18.23 C 91.02 % 2.37 m/s 211.13 Deg 0.02 ug/m3
2021-05-27 04:00 5.2 ug/m3 0.19 ug/m3 82.85 ug/m3 11.98 ug/m3 5.28 ug/m3 0.14 mg/m3 18.43 C 90.15 % 4.35 m/s 265.74 Deg 0.01 ug/m3
2021-05-27 03:00 3.03 ug/m3 0.13 ug/m3 87.81 ug/m3 11.13 ug/m3 6.05 ug/m3 0.13 mg/m3 18.66 C 89.56 % 5.19 m/s 243.52 Deg 0.02 ug/m3
2021-05-27 02:00 2.77 ug/m3 0.14 ug/m3 90.92 ug/m3 11.55 ug/m3 8.85 ug/m3 0.12 mg/m3 18.48 C 89.21 % 1.73 m/s 235.49 Deg 0.01 ug/m3
2021-05-27 01:00 3.86 ug/m3 0.23 ug/m3 90.24 ug/m3 9.4 ug/m3 11.9 ug/m3 0.14 mg/m3 18.61 C 88.17 % 1.79 m/s 220.81 Deg 0.01 ug/m3
2021-05-27 00:00 4.69 ug/m3 0.2 ug/m3 91.28 ug/m3 19.6 ug/m3 9.88 ug/m3 0.14 mg/m3 18.71 C 87.03 % 2.04 m/s 213.52 Deg 0.01 ug/m3
2021-05-26 23:00 3.2 ug/m3 0.23 ug/m3 96.33 ug/m3 15.93 ug/m3 11.87 ug/m3 0.14 mg/m3 19.57 C 72.31 % 2.41 m/s 219.43 Deg 0.01 ug/m3
2021-05-26 22:00 5.38 ug/m3 0.33 ug/m3 92.85 ug/m3 13.7 ug/m3 9.7 ug/m3 0.14 mg/m3 19.32 C 71.46 % 1.32 m/s 250.56 Deg 0.01 ug/m3
2021-05-26 21:00 7.06 ug/m3 0.32 ug/m3 93.04 ug/m3 16.85 ug/m3 9.7 ug/m3 0.14 mg/m3 19.05 C 77.22 % 1.37 m/s 230.29 Deg 0.02 ug/m3
2021-05-26 20:00 7.34 ug/m3 0.43 ug/m3 98.61 ug/m3 24.5 ug/m3 8.95 ug/m3 0.14 mg/m3 19.18 C 69.92 % 2.13 m/s 271.09 Deg 0.01 ug/m3
2021-05-26 19:00 2.94 ug/m3 0.25 ug/m3 107.86 ug/m3 17.18 ug/m3 11.25 ug/m3 0.14 mg/m3 19.35 C 76.63 % 4.24 m/s 269.88 Deg 0.04 ug/m3
2021-05-26 18:00 2.16 ug/m3 0.23 ug/m3 106.91 ug/m3 16.33 ug/m3 11.35 ug/m3 0.14 mg/m3 19.87 C 78.81 % 4.61 m/s 277.13 Deg 0.09 ug/m3
2021-05-26 17:00 1.79 ug/m3 0.29 ug/m3 109.86 ug/m3 18.3 ug/m3 10.65 ug/m3 0.14 mg/m3 20.08 C 78.56 % 4.11 m/s 268.13 Deg 0.16 ug/m3
2021-05-26 16:00 1.04 ug/m3 0.38 ug/m3 113.37 ug/m3 12.8 ug/m3 10.4 ug/m3 0.14 mg/m3 20.67 C 72.06 % 3.8 m/s 271.68 Deg 0.06 ug/m3
2021-05-26 15:00 1.45 ug/m3 0.37 ug/m3 112.53 ug/m3 23.45 ug/m3 6.5 ug/m3 0.13 mg/m3 20.96 C 64.54 % 3.81 m/s 280.47 Deg 0.12 ug/m3
2021-05-26 14:00 1.11 ug/m3 0.34 ug/m3 108.62 ug/m3 30.3 ug/m3 4.75 ug/m3 0.13 mg/m3 21.8 C 54.9 % 3.32 m/s 283.04 Deg 0.07 ug/m3
2021-05-26 13:00 1.52 ug/m3 0.36 ug/m3 105.77 ug/m3 24.43 ug/m3 8.28 ug/m3 0.13 mg/m3 21.98 C 49.59 % 3.14 m/s 297.42 Deg 0.13 ug/m3
2021-05-26 12:00 2.49 ug/m3 0.38 ug/m3 105.3 ug/m3 9.8 ug/m3 9.88 ug/m3 0.13 mg/m3 21.21 C 54.21 % 3.16 m/s 332.88 Deg 0.3 ug/m3
2021-05-26 11:00 3.32 ug/m3 0.44 ug/m3 99.11 ug/m3 25.35 ug/m3 15.03 ug/m3 0.13 mg/m3 20.78 C 59.4 % 3.48 m/s 329.31 Deg 0.54 ug/m3
2021-05-26 10:00 3.29 ug/m3 0.7 ug/m3 97.48 ug/m3 26.58 ug/m3 16.18 ug/m3 0.2 mg/m3 20.15 C 76.74 % 3.46 m/s 275.43 Deg 0.5 ug/m3
2021-05-26 09:00 3.67 ug/m3 0.68 ug/m3 92.58 ug/m3 28.1 ug/m3 15.7 ug/m3 0.14 mg/m3 19.72 C 85.55 % 2.96 m/s 269.46 Deg 0.57 ug/m3
2021-05-26 08:00 3.32 ug/m3 0.64 ug/m3 88.51 ug/m3 28.6 ug/m3 15.38 ug/m3 0.14 mg/m3 18.98 C 89.68 % 2.65 m/s 317.04 Deg 0.35 ug/m3
2021-05-26 07:00 4.82 ug/m3 0.52 ug/m3 75.56 ug/m3 27.5 ug/m3 15.23 ug/m3 0.14 mg/m3 18.47 C 90.99 % 1.66 m/s 331.94 Deg 0.4 ug/m3
2021-05-26 06:00 10.53 ug/m3 0.47 ug/m3 63.45 ug/m3 27.13 ug/m3 15.88 ug/m3 0.16 mg/m3 17.91 C 91.3 % 1.87 m/s 142.57 Deg 0.36 ug/m3
2021-05-26 05:00 4.78 ug/m3 0.22 ug/m3 75.68 ug/m3 24.03 ug/m3 14 ug/m3 0.14 mg/m3 18.01 C 88.65 % 1.92 m/s 109.83 Deg 0.02 ug/m3
2021-05-26 04:00 3.72 ug/m3 0.18 ug/m3 80.32 ug/m3 23.9 ug/m3 15.18 ug/m3 0.14 mg/m3 18.49 C 83.64 % 2.35 m/s 115.32 Deg 0.02 ug/m3
2021-05-26 03:00 3.69 ug/m3 0.19 ug/m3 84.33 ug/m3 25.25 ug/m3 15.2 ug/m3 0.14 mg/m3 18.58 C 85.74 % 4.05 m/s 106.89 Deg 0.01 ug/m3
2021-05-26 02:00 5.97 ug/m3 0.22 ug/m3 87.08 ug/m3 25 ug/m3 13.2 ug/m3 0.13 mg/m3 18.65 C 85.2 % 4.48 m/s 108.01 Deg 0.01 ug/m3
2021-05-26 01:00 5.35 ug/m3 0.17 ug/m3 88.89 ug/m3 28.5 ug/m3 8.6 ug/m3 0.14 mg/m3 18.64 C 82.15 % 3.52 m/s 104.54 Deg 0.01 ug/m3
2021-05-26 00:00 2.82 ug/m3 0.12 ug/m3 86.43 ug/m3 33.53 ug/m3 8.3 ug/m3 0.14 mg/m3 18.36 C 87.24 % 3.21 m/s 91.41 Deg 0.01 ug/m3
2021-05-25 23:00 2.93 ug/m3 0.14 ug/m3 82.31 ug/m3 35.13 ug/m3 9.03 ug/m3 0.14 mg/m3 18.38 C 89.99 % 1.88 m/s 71.25 Deg 0.01 ug/m3
2021-05-25 22:00 2.69 ug/m3 0.1 ug/m3 90.7 ug/m3 30.08 ug/m3 11.1 ug/m3 0.14 mg/m3 18.54 C 90.88 % 1.22 m/s 312.33 Deg 0.01 ug/m3
2021-05-25 21:00 1.65 ug/m3 0.07 ug/m3 90.42 ug/m3 28.25 ug/m3 12.9 ug/m3 0.14 mg/m3 18.43 C 91.62 % 1.67 m/s 303.35 Deg 0.01 ug/m3
2021-05-25 20:00 2.98 ug/m3 0.06 ug/m3 90.51 ug/m3 32.25 ug/m3 13.6 ug/m3 0.13 mg/m3 18.52 C 91.15 % 2.27 m/s 291.7 Deg 0.01 ug/m3
2021-05-25 19:00 4.03 ug/m3 0.13 ug/m3 90.98 ug/m3 34.88 ug/m3 14.3 ug/m3 0.14 mg/m3 19.03 C 88.56 % 3.37 m/s 300.74 Deg 0.08 ug/m3
2021-05-25 18:00 3.09 ug/m3 0.26 ug/m3 97.39 ug/m3 32.45 ug/m3 18.25 ug/m3 0.14 mg/m3 19.61 C 86.93 % 3.86 m/s 306.71 Deg 0.22 ug/m3
2021-05-25 17:00 6.76 ug/m3 0.41 ug/m3 99.83 ug/m3 27.75 ug/m3 19.05 ug/m3 0.14 mg/m3 19.8 C 86.53 % 4.69 m/s 316.46 Deg 0.94 ug/m3
2021-05-25 16:00 1.37 ug/m3 0.23 ug/m3 104.21 ug/m3 31.3 ug/m3 19.73 ug/m3 0.14 mg/m3 19.71 C 86.9 % 5.12 m/s 318.19 Deg 0.17 ug/m3
2021-05-25 15:00 0.53 ug/m3 0.29 ug/m3 100.49 ug/m3 32.9 ug/m3 19.25 ug/m3 0.14 mg/m3 19.71 C 86.38 % 5.38 m/s 314.14 Deg 0.05 ug/m3
2021-05-25 14:00 0.81 ug/m3 0.29 ug/m3 99.49 ug/m3 32.45 ug/m3 19.3 ug/m3 0.14 mg/m3 19.66 C 85.53 % 5.03 m/s 318.54 Deg 0.07 ug/m3
2021-05-25 13:00 1.76 ug/m3 0.36 ug/m3 96.52 ug/m3 33.88 ug/m3 16.48 ug/m3 0.14 mg/m3 20.01 C 84.08 % 4.33 m/s 311.73 Deg 0.28 ug/m3
2021-05-25 12:00 0.88 ug/m3 0.41 ug/m3 93.2 ug/m3 35.45 ug/m3 17.38 ug/m3 0.14 mg/m3 19.44 C 87.72 % 4.25 m/s 319.54 Deg 0.09 ug/m3
2021-05-25 11:00 1.47 ug/m3 0.39 ug/m3 93.4 ug/m3 14.43 ug/m3 17.85 ug/m3 0.14 mg/m3 19.23 C 89.11 % 3.87 m/s 319.47 Deg 0.22 ug/m3
2021-05-25 10:00 1.1 ug/m3 0.27 ug/m3 93.49 ug/m3 7.3 ug/m3 4.45 ug/m3 0.14 mg/m3 18.88 C 90.61 % 3.46 m/s 321.93 Deg 0.16 ug/m3
2021-05-25 09:00 2.08 ug/m3 0.22 ug/m3 91.7 ug/m3 1.83 ug/m3 0 ug/m3 0.14 mg/m3 18.65 C 92.16 % 2.98 m/s 327.79 Deg 0.25 ug/m3
2021-05-25 08:00 1.58 ug/m3 0.1 ug/m3 88.22 ug/m3 27.9 ug/m3 11.93 ug/m3 0.14 mg/m3 18.26 C 95.11 % 2.95 m/s 341.38 Deg 0.14 ug/m3
2021-05-25 07:00 4.04 ug/m3 0.06 ug/m3 81.3 ug/m3 25.88 ug/m3 13.58 ug/m3 0.14 mg/m3 18.04 C 97 % 2.99 m/s 278.97 Deg 0.21 ug/m3
2021-05-25 06:00 2.74 ug/m3 -0.01 ug/m3 79.97 ug/m3 25.28 ug/m3 11.08 ug/m3 0.14 mg/m3 17.85 C 97.17 % 3.12 m/s 342.37 Deg 0.06 ug/m3
2021-05-25 05:00 1.48 ug/m3 0 ug/m3 84.02 ug/m3 26.6 ug/m3 11.25 ug/m3 0.14 mg/m3 17.78 C 97.3 % 3.6 m/s 341.51 Deg 0.01 ug/m3
2021-05-25 04:00 4.28 ug/m3 0.06 ug/m3 82.75 ug/m3 19 ug/m3 11.13 ug/m3 0.15 mg/m3 17.96 C 97.42 % 3.96 m/s 336.88 Deg 0.02 ug/m3
2021-05-25 03:00 4.29 ug/m3 0.03 ug/m3 90.93 ug/m3 12.25 ug/m3 10.4 ug/m3 0.14 mg/m3 18.2 C 96.17 % 3.46 m/s 316.89 Deg 0.01 ug/m3
2021-05-25 02:00 4.22 ug/m3 0.05 ug/m3 97.89 ug/m3 9.1 ug/m3 9.08 ug/m3 0.12 mg/m3 18.3 C 93.95 % 3.73 m/s 17.6 Deg 0.01 ug/m3
2021-05-25 01:00 3.92 ug/m3 0.05 ug/m3 101.56 ug/m3 10.6 ug/m3 10.2 ug/m3 0.13 mg/m3 18.46 C 91.84 % 3.71 m/s 17.45 Deg 0.01 ug/m3
2021-05-25 00:00 4.17 ug/m3 0.06 ug/m3 103.42 ug/m3 13.68 ug/m3 9.38 ug/m3 0.13 mg/m3 18.48 C 92.07 % 3.63 m/s 15.52 Deg 0.02 ug/m3
2021-05-24 23:00 4.19 ug/m3 0.1 ug/m3 100.74 ug/m3 15.45 ug/m3 10.68 ug/m3 0.13 mg/m3 18.94 C 82.33 % 2.67 m/s 68.25 Deg 0.01 ug/m3
2021-05-24 22:00 4.16 ug/m3 0.13 ug/m3 104.5 ug/m3 16.15 ug/m3 10.45 ug/m3 0.13 mg/m3 19.39 C 78.89 % 2.9 m/s 100.2 Deg 0.01 ug/m3
2021-05-24 21:00 3.5 ug/m3 0.11 ug/m3 112.42 ug/m3 13.08 ug/m3 8.7 ug/m3 0.13 mg/m3 19.34 C 81.09 % 4.18 m/s 91.14 Deg 0.01 ug/m3
2021-05-24 20:00 2.43 ug/m3 0.07 ug/m3 116.94 ug/m3 15.08 ug/m3 11.95 ug/m3 0.13 mg/m3 19.51 C 81.4 % 5.33 m/s 79.57 Deg 0.04 ug/m3
2021-05-24 19:00 1.64 ug/m3 0.1 ug/m3 123.8 ug/m3 19.93 ug/m3 13.2 ug/m3 0.13 mg/m3 19.91 C 80.37 % 6.79 m/s 79 Deg 0.05 ug/m3
2021-05-24 18:00 2.07 ug/m3 0.2 ug/m3 121.75 ug/m3 18.28 ug/m3 10.43 ug/m3 0.13 mg/m3 20.51 C 78.22 % 6.95 m/s 73.77 Deg 0.13 ug/m3
2021-05-24 17:00 0.98 ug/m3 0.23 ug/m3 116.95 ug/m3 18.2 ug/m3 11.38 ug/m3 0.13 mg/m3 21.28 C 75.78 % 6.81 m/s 71.96 Deg 0.08 ug/m3
2021-05-24 16:00 1.78 ug/m3 0.34 ug/m3 113.21 ug/m3 16.93 ug/m3 10.95 ug/m3 0.13 mg/m3 22.44 C 70.01 % 7.12 m/s 86.52 Deg 0.21 ug/m3
2021-05-24 15:00 1.97 ug/m3 0.3 ug/m3 114.9 ug/m3 25.8 ug/m3 11.93 ug/m3 0.13 mg/m3 22.79 C 69.74 % 6.15 m/s 80.7 Deg 0.21 ug/m3
2021-05-24 14:00 2.32 ug/m3 0.32 ug/m3 114.26 ug/m3 46.25 ug/m3 16.13 ug/m3 0.13 mg/m3 23.24 C 65.47 % 8.4 m/s 103.59 Deg 0.3 ug/m3
2021-05-24 13:00 3.65 ug/m3 0.34 ug/m3 119.53 ug/m3 36.5 ug/m3 15.2 ug/m3 0.13 mg/m3 23.85 C 61.84 % 9.27 m/s 104.49 Deg 0.49 ug/m3
2021-05-24 12:00 4.6 ug/m3 0.41 ug/m3 116.01 ug/m3 21.08 ug/m3 11.58 ug/m3 0.14 mg/m3 24.04 C 59.7 % 8.91 m/s 110.58 Deg 0.67 ug/m3
2021-05-24 11:00 4.99 ug/m3 0.43 ug/m3 110.73 ug/m3 21.43 ug/m3 13.83 ug/m3 0.14 mg/m3 23.44 C 64.99 % 8.08 m/s 106.65 Deg 0.81 ug/m3
2021-05-24 10:00 7.17 ug/m3 0.45 ug/m3 104.95 ug/m3 20.75 ug/m3 10.7 ug/m3 0.14 mg/m3 22.82 C 64 % 7.76 m/s 108.76 Deg 1.29 ug/m3
2021-05-24 09:00 6.72 ug/m3 0.35 ug/m3 99.38 ug/m3 13.5 ug/m3 9.3 ug/m3 0.14 mg/m3 21.96 C 67.62 % 7.05 m/s 104.12 Deg 1.19 ug/m3
2021-05-24 08:00 5.54 ug/m3 0.13 ug/m3 94.96 ug/m3 12.95 ug/m3 11.4 ug/m3 0.14 mg/m3 20.35 C 78.94 % 6.28 m/s 105.85 Deg 0.84 ug/m3
2021-05-24 07:00 5.02 ug/m3 0.15 ug/m3 91.98 ug/m3 12.98 ug/m3 10.83 ug/m3 0.14 mg/m3 19.27 C 84.5 % 6.62 m/s 107.7 Deg 0.57 ug/m3
2021-05-24 06:00 3.74 ug/m3 0.09 ug/m3 90.1 ug/m3 12.2 ug/m3 10.18 ug/m3 0.14 mg/m3 18.28 C 87.93 % 6.72 m/s 111.32 Deg 0.13 ug/m3
2021-05-24 05:00 3.17 ug/m3 0.09 ug/m3 89.6 ug/m3 10.35 ug/m3 10.33 ug/m3 0.13 mg/m3 17.99 C 90.28 % 6.89 m/s 113.07 Deg 0.01 ug/m3
2021-05-24 04:00 1.39 ug/m3 0.08 ug/m3 87.57 ug/m3 11.08 ug/m3 9.73 ug/m3 0.13 mg/m3 17.79 C 91.36 % 5.85 m/s 103.59 Deg 0.01 ug/m3
2021-05-24 03:00 1.72 ug/m3 0.1 ug/m3 84.47 ug/m3 12.93 ug/m3 8.53 ug/m3 0.13 mg/m3 17.86 C 93.99 % 4.81 m/s 97.4 Deg 0.01 ug/m3
2021-05-24 02:00 3.09 ug/m3 0.08 ug/m3 79.86 ug/m3 14.9 ug/m3 8.58 ug/m3 0.13 mg/m3 17.74 C 92.24 % 2.66 m/s 85.69 Deg 0.01 ug/m3
2021-05-24 01:00 3.39 ug/m3 0.07 ug/m3 82.79 ug/m3 8.4 ug/m3 8.4 ug/m3 0.14 mg/m3 18.13 C 91.91 % 4.37 m/s 87.14 Deg 0.01 ug/m3
2021-05-24 00:00 3.94 ug/m3 0.09 ug/m3 86.68 ug/m3 10.35 ug/m3 6.83 ug/m3 0.14 mg/m3 18.82 C 73.47 % 2.38 m/s 37.81 Deg 0.02 ug/m3
2021-05-23 23:00 5.68 ug/m3 0.12 ug/m3 99.02 ug/m3 7.48 ug/m3 6.23 ug/m3 0.13 mg/m3 20.29 C 43.29 % 3.37 m/s 130.86 Deg 0.01 ug/m3
2021-05-23 22:00 2.05 ug/m3 0.08 ug/m3 109.85 ug/m3 12.6 ug/m3 8.15 ug/m3 0.12 mg/m3 21.17 C 31.08 % 2.73 m/s 111.01 Deg 0 ug/m3
2021-05-23 21:00 2.18 ug/m3 0.07 ug/m3 112.93 ug/m3 15.6 ug/m3 5.43 ug/m3 0.13 mg/m3 21.6 C 30.9 % 4.01 m/s 146.42 Deg 0.01 ug/m3
2021-05-23 20:00 5.24 ug/m3 0.09 ug/m3 103.47 ug/m3 13.43 ug/m3 7.23 ug/m3 0.15 mg/m3 21.26 C 43.67 % 1.58 m/s 120.9 Deg 0 ug/m3
2021-05-23 19:00 1.3 ug/m3 0.08 ug/m3 108.69 ug/m3 6.08 ug/m3 8.05 ug/m3 0.13 mg/m3 21.76 C 47.84 % 2.97 m/s 144.49 Deg 0.03 ug/m3
2021-05-23 18:00 0.9 ug/m3 0.15 ug/m3 108.06 ug/m3 0.23 ug/m3 6.05 ug/m3 0.13 mg/m3 22.23 C 51.39 % 4.48 m/s 150.56 Deg 0.06 ug/m3
2021-05-23 17:00 0.78 ug/m3 0.13 ug/m3 107.8 ug/m3 19.93 ug/m3 11.03 ug/m3 0.13 mg/m3 22.77 C 48.79 % 4.94 m/s 157.7 Deg 0.08 ug/m3
2021-05-23 16:00 0.66 ug/m3 0.14 ug/m3 111.01 ug/m3 13.93 ug/m3 10.35 ug/m3 0.13 mg/m3 23.41 C 43.53 % 4.64 m/s 157.38 Deg 0.05 ug/m3
2021-05-23 15:00 0.68 ug/m3 0.14 ug/m3 116.47 ug/m3 -4.95 ug/m3 0.73 ug/m3 0.12 mg/m3 23.94 C 35.42 % 4.64 m/s 159.31 Deg 0.04 ug/m3
2021-05-23 14:00 0.6 ug/m3 0.16 ug/m3 118.34 ug/m3 -3.35 ug/m3 9.8 ug/m3 0.13 mg/m3 24.32 C 31.93 % 4.08 m/s 162.41 Deg 0.03 ug/m3
2021-05-23 13:00 0.64 ug/m3 0.1 ug/m3 116.77 ug/m3 19.3 ug/m3 10.2 ug/m3 0.13 mg/m3 23.18 C 39.16 % 5.63 m/s 169.9 Deg 0.04 ug/m3
2021-05-23 12:00 0.67 ug/m3 0.1 ug/m3 121.1 ug/m3 -0.28 ug/m3 6.45 ug/m3 0.12 mg/m3 23.24 C 33.49 % 5.17 m/s 168.92 Deg 0.04 ug/m3
2021-05-23 11:00 0.79 ug/m3 0.12 ug/m3 121.9 ug/m3 0.33 ug/m3 1.15 ug/m3 0.12 mg/m3 23.26 C 31.59 % 4.9 m/s 171.07 Deg 0.05 ug/m3
2021-05-23 10:00 1.78 ug/m3 0.22 ug/m3 119.69 ug/m3 5.55 ug/m3 9.63 ug/m3 0.13 mg/m3 23.2 C 36.45 % 3.75 m/s 154.16 Deg 0.15 ug/m3
2021-05-23 09:00 1.94 ug/m3 0.16 ug/m3 106.65 ug/m3 14.53 ug/m3 11.48 ug/m3 0.14 mg/m3 21.63 C 60.25 % 2.16 m/s 189.72 Deg 0.22 ug/m3
2021-05-23 08:00 2.59 ug/m3 0.05 ug/m3 98.05 ug/m3 14.8 ug/m3 11.38 ug/m3 0.15 mg/m3 19.66 C 76.6 % 3.07 m/s 113.83 Deg 0.37 ug/m3
2021-05-23 07:00 2.27 ug/m3 -0.01 ug/m3 87.86 ug/m3 14.23 ug/m3 10.83 ug/m3 0.15 mg/m3 17.78 C 92.79 % 2.67 m/s 125.84 Deg 0.23 ug/m3
2021-05-23 06:00 4.68 ug/m3 -0.01 ug/m3 79.95 ug/m3 11.15 ug/m3 8.2 ug/m3 0.15 mg/m3 16.81 C 94.65 % 1.52 m/s 98.19 Deg 0.19 ug/m3
2021-05-23 05:00 1.17 ug/m3 -0.03 ug/m3 89.99 ug/m3 13.85 ug/m3 7.03 ug/m3 0.14 mg/m3 16.87 C 94.43 % 1.94 m/s 134.05 Deg 0 ug/m3
2021-05-23 04:00 1.36 ug/m3 0.01 ug/m3 92.55 ug/m3 12.85 ug/m3 9.23 ug/m3 0.14 mg/m3 17.08 C 93.92 % 1.74 m/s 117.62 Deg -0 ug/m3
2021-05-23 03:00 0.91 ug/m3 -0.01 ug/m3 94.33 ug/m3 13.3 ug/m3 7.68 ug/m3 0.13 mg/m3 17.21 C 92.04 % 3 m/s 138.98 Deg -0 ug/m3
2021-05-23 02:00 0.46 ug/m3 -0.01 ug/m3 96.61 ug/m3 12.8 ug/m3 5.85 ug/m3 0.13 mg/m3 17.29 C 92.69 % 2.86 m/s 131.96 Deg -0 ug/m3
2021-05-23 01:00 1 ug/m3 0.05 ug/m3 98.37 ug/m3 13.9 ug/m3 9.3 ug/m3 0.14 mg/m3 17.53 C 89.67 % 3.3 m/s 148.58 Deg 0.01 ug/m3
2021-05-23 00:00 1.83 ug/m3 0.01 ug/m3 95.23 ug/m3 13.83 ug/m3 7.58 ug/m3 0.15 mg/m3 17.38 C 86.89 % 3.32 m/s 137.92 Deg 0.01 ug/m3
2021-05-22 23:00 1.99 ug/m3 -0 ug/m3 95.59 ug/m3 12.9 ug/m3 8.43 ug/m3 0.15 mg/m3 17.48 C 85.63 % 2.64 m/s 118.65 Deg 0 ug/m3
2021-05-22 22:00 1.74 ug/m3 0.02 ug/m3 96.15 ug/m3 16.28 ug/m3 11.68 ug/m3 0.16 mg/m3 17.6 C 85.15 % 2.68 m/s 119.92 Deg 0 ug/m3
2021-05-22 21:00 1.59 ug/m3 0.01 ug/m3 100.75 ug/m3 16 ug/m3 9.38 ug/m3 0.15 mg/m3 18.06 C 81.01 % 4.21 m/s 126.61 Deg 0.01 ug/m3
2021-05-22 20:00 0.99 ug/m3 0.01 ug/m3 105.07 ug/m3 15.17 ug/m3 10.43 ug/m3 0.15 mg/m3 18.35 C 81.7 % 5.83 m/s 138.46 Deg 0.01 ug/m3
2021-05-22 19:00 1.08 ug/m3 0.01 ug/m3 106.73 ug/m3 18.53 ug/m3 9.1 ug/m3 0.15 mg/m3 18.74 C 82.3 % 6.59 m/s 150.91 Deg 0.04 ug/m3
2021-05-22 18:00 0.54 ug/m3 0.02 ug/m3 106.35 ug/m3 13.33 ug/m3 8.38 ug/m3 0.14 mg/m3 19.2 C 79.53 % 7.41 m/s 150.76 Deg 0.04 ug/m3
2021-05-22 17:00 0.56 ug/m3 0.07 ug/m3 106.43 ug/m3 17.2 ug/m3 10.28 ug/m3 0.14 mg/m3 19.65 C 77.24 % 7.75 m/s 160.48 Deg 0.05 ug/m3
2021-05-22 16:00 0.55 ug/m3 0.08 ug/m3 107.28 ug/m3 18.23 ug/m3 11.35 ug/m3 0.14 mg/m3 19.78 C 76.48 % 8.11 m/s 161.05 Deg 0.05 ug/m3
2021-05-22 15:00 0.82 ug/m3 0.12 ug/m3 111.66 ug/m3 19.18 ug/m3 11.8 ug/m3 0.14 mg/m3 19.97 C 75.03 % 7.57 m/s 165.27 Deg 0.07 ug/m3
2021-05-22 14:00 0.57 ug/m3 0.15 ug/m3 111.63 ug/m3 12.4 ug/m3 9.13 ug/m3 0.14 mg/m3 19.88 C 74.73 % 7.14 m/s 171.39 Deg 0.04 ug/m3
2021-05-22 13:00 0.62 ug/m3 0.08 ug/m3 108.02 ug/m3 16.73 ug/m3 10.4 ug/m3 0.14 mg/m3 19.91 C 74.97 % 6.64 m/s 173.57 Deg 0.04 ug/m3
2021-05-22 12:00 0.57 ug/m3 0.11 ug/m3 106.73 ug/m3 17.85 ug/m3 11.95 ug/m3 0.14 mg/m3 19.75 C 76.47 % 6.92 m/s 170.48 Deg 0.05 ug/m3
2021-05-22 11:00 0.66 ug/m3 0.09 ug/m3 106.45 ug/m3 16.43 ug/m3 11.13 ug/m3 0.14 mg/m3 19.29 C 77.66 % 7.28 m/s 167.92 Deg 0.07 ug/m3
2021-05-22 10:00 0.62 ug/m3 0.1 ug/m3 106.77 ug/m3 17.7 ug/m3 9.15 ug/m3 0.14 mg/m3 19.14 C 77.79 % 6.72 m/s 167.47 Deg 0.06 ug/m3
2021-05-22 09:00 0.9 ug/m3 0.12 ug/m3 110.36 ug/m3 16.33 ug/m3 10.33 ug/m3 0.14 mg/m3 18.89 C 78.07 % 6.85 m/s 165.19 Deg 0.11 ug/m3
2021-05-22 08:00 0.85 ug/m3 0.09 ug/m3 111.36 ug/m3 13.75 ug/m3 8.58 ug/m3 0.14 mg/m3 18.49 C 78.69 % 6.11 m/s 173.42 Deg 0.09 ug/m3
2021-05-22 07:00 1.1 ug/m3 0.12 ug/m3 102.94 ug/m3 13.85 ug/m3 7.8 ug/m3 0.14 mg/m3 17.8 C 81.56 % 5.4 m/s 177.88 Deg 0.09 ug/m3
2021-05-22 06:00 3.32 ug/m3 0.1 ug/m3 94.77 ug/m3 13.43 ug/m3 11.93 ug/m3 0.14 mg/m3 16.97 C 84.11 % 3.61 m/s 170.76 Deg 0.07 ug/m3
2021-05-22 05:00 0.83 ug/m3 0.08 ug/m3 92.85 ug/m3 13.58 ug/m3 11.58 ug/m3 0.13 mg/m3 16.66 C 85.75 % 2.92 m/s 162.61 Deg 0 ug/m3
2021-05-22 04:00 0.22 ug/m3 0.09 ug/m3 91.66 ug/m3 14.9 ug/m3 10.93 ug/m3 0.13 mg/m3 16.77 C 85.47 % 3.08 m/s 164.92 Deg -0 ug/m3
2021-05-22 03:00 0.23 ug/m3 0.1 ug/m3 90.27 ug/m3 15.6 ug/m3 10.45 ug/m3 0.13 mg/m3 16.87 C 86.12 % 3.65 m/s 170.13 Deg -0.01 ug/m3
2021-05-22 02:00 0.18 ug/m3 0.07 ug/m3 87.74 ug/m3 14.35 ug/m3 9.03 ug/m3 0.12 mg/m3 16.93 C 87.52 % 4.16 m/s 177.82 Deg 0.01 ug/m3
2021-05-22 01:00 0.35 ug/m3 0.07 ug/m3 92.92 ug/m3 15 ug/m3 10 ug/m3 0.14 mg/m3 17.02 C 87.2 % 3.48 m/s 175.79 Deg 0.01 ug/m3
2021-05-22 00:00 0.21 ug/m3 0.09 ug/m3 93.47 ug/m3 15.08 ug/m3 10.83 ug/m3 0.14 mg/m3 17.23 C 87.05 % 4.02 m/s 172.18 Deg -0 ug/m3
2021-05-21 23:00 0.47 ug/m3 0.09 ug/m3 94.14 ug/m3 14.13 ug/m3 11.63 ug/m3 0.15 mg/m3 17.31 C 86.67 % 3.37 m/s 164.36 Deg -0 ug/m3
2021-05-21 22:00 0.98 ug/m3 0.11 ug/m3 98.26 ug/m3 15.98 ug/m3 13.9 ug/m3 0.16 mg/m3 17.34 C 83.24 % 3.46 m/s 161.84 Deg 0.01 ug/m3
2021-05-21 21:00 1.41 ug/m3 0.13 ug/m3 100.55 ug/m3 11.23 ug/m3 8.98 ug/m3 0.17 mg/m3 17.4 C 82.39 % 3.04 m/s 161.31 Deg 0.02 ug/m3
2021-05-21 20:00 1.05 ug/m3 0.16 ug/m3 102.63 ug/m3 6.93 ug/m3 10.25 ug/m3 0.14 mg/m3 17.82 C 77.94 % 3.39 m/s 170.49 Deg 0.01 ug/m3
2021-05-21 19:00 1.01 ug/m3 0.26 ug/m3 106.38 ug/m3 5.05 ug/m3 10.18 ug/m3 0.13 mg/m3 18.98 C 59.28 % 3.24 m/s 180.56 Deg 0.01 ug/m3
2021-05-21 18:00 0.91 ug/m3 0.35 ug/m3 108.49 ug/m3 11.83 ug/m3 11.38 ug/m3 0.13 mg/m3 19.91 C 48.66 % 3.11 m/s 187.28 Deg 0.03 ug/m3
2021-05-21 17:00 0.9 ug/m3 0.39 ug/m3 108.04 ug/m3 8.28 ug/m3 10.78 ug/m3 0.13 mg/m3 19.57 C 63.24 % 4.12 m/s 179.56 Deg 0.05 ug/m3
2021-05-21 16:00 1.06 ug/m3 0.45 ug/m3 109.94 ug/m3 24.75 ug/m3 13.55 ug/m3 0.13 mg/m3 19.89 C 61.42 % 4.71 m/s 186.88 Deg 0.08 ug/m3
2021-05-21 15:00 1.12 ug/m3 0.65 ug/m3 110.81 ug/m3 20.25 ug/m3 14 ug/m3 0.13 mg/m3 20.5 C 56.25 % 3.23 m/s 151.21 Deg 0.07 ug/m3
2021-05-21 14:00 1.31 ug/m3 0.82 ug/m3 110.5 ug/m3 17.23 ug/m3 12.75 ug/m3 0.14 mg/m3 20.49 C 60.35 % 3.65 m/s 197.1 Deg 0.09 ug/m3
2021-05-21 13:00 2.07 ug/m3 1.08 ug/m3 118.47 ug/m3 21.45 ug/m3 12.03 ug/m3 0.14 mg/m3 19.66 C 67.64 % 2.65 m/s 277.78 Deg 0.15 ug/m3
2021-05-21 12:00 2.68 ug/m3 1 ug/m3 112.99 ug/m3 17.4 ug/m3 10.48 ug/m3 0.14 mg/m3 20.13 C 64.52 % 3.85 m/s 91.97 Deg 0.25 ug/m3
2021-05-21 11:00 2.56 ug/m3 1 ug/m3 110.28 ug/m3 14.33 ug/m3 12.48 ug/m3 0.14 mg/m3 20.31 C 59.86 % 3.23 m/s 108.13 Deg 0.24 ug/m3
2021-05-21 10:00 2.86 ug/m3 1.3 ug/m3 107.24 ug/m3 15.33 ug/m3 7.45 ug/m3 0.13 mg/m3 19.39 C 62.91 % 4.23 m/s 81.88 Deg 0.31 ug/m3
2021-05-21 09:00 2.48 ug/m3 1.32 ug/m3 106.64 ug/m3 11.98 ug/m3 9.7 ug/m3 0.13 mg/m3 18.82 C 59.89 % 4.46 m/s 62.83 Deg 0.24 ug/m3
2021-05-21 08:00 2.69 ug/m3 1.13 ug/m3 103.38 ug/m3 12.13 ug/m3 9.08 ug/m3 0.13 mg/m3 18.55 C 60.99 % 3.84 m/s 57.71 Deg 0.28 ug/m3
2021-05-21 07:00 5.5 ug/m3 0.4 ug/m3 95.28 ug/m3 12.45 ug/m3 7.05 ug/m3 0.14 mg/m3 17.58 C 69.66 % 2.65 m/s 22.43 Deg 0.57 ug/m3
2021-05-21 06:00 2.18 ug/m3 0.06 ug/m3 93.47 ug/m3 17.2 ug/m3 8.7 ug/m3 0.13 mg/m3 16.54 C 71.11 % 2.72 m/s 19.3 Deg 0.07 ug/m3
2021-05-21 05:00 3.36 ug/m3 0.13 ug/m3 88.2 ug/m3 21.2 ug/m3 10.98 ug/m3 0.13 mg/m3 15.93 C 73.77 % 2.74 m/s 37.02 Deg 0.02 ug/m3
2021-05-21 04:00 6.96 ug/m3 0.19 ug/m3 76.12 ug/m3 25.15 ug/m3 11.35 ug/m3 0.14 mg/m3 16.24 C 91.02 % 2.73 m/s 20.76 Deg 0.02 ug/m3
2021-05-21 03:00 6.95 ug/m3 0.11 ug/m3 76.87 ug/m3 27.63 ug/m3 9.58 ug/m3 0.13 mg/m3 16.51 C 91.14 % 2.74 m/s 31.47 Deg 0.03 ug/m3
2021-05-21 02:00 7.86 ug/m3 0.18 ug/m3 77.17 ug/m3 32 ug/m3 11.33 ug/m3 0.12 mg/m3 16.63 C 91.11 % 2.28 m/s 43.3 Deg 0.02 ug/m3
2021-05-21 01:00 3.13 ug/m3 0.11 ug/m3 83.04 ug/m3 38.1 ug/m3 15 ug/m3 0.13 mg/m3 16.8 C 89.11 % 2.87 m/s 29.17 Deg 0.01 ug/m3
2021-05-21 00:00 4.13 ug/m3 0.17 ug/m3 82.52 ug/m3 41.18 ug/m3 14.93 ug/m3 0.13 mg/m3 16.87 C 85.53 % 2.78 m/s 47.26 Deg 0.02 ug/m3
2021-05-20 23:00 5.02 ug/m3 0.18 ug/m3 82.99 ug/m3 35.15 ug/m3 14 ug/m3 0.13 mg/m3 17.37 C 84.61 % 3.55 m/s 43.27 Deg 0.02 ug/m3
2021-05-20 22:00 1.84 ug/m3 0.09 ug/m3 90.35 ug/m3 27.63 ug/m3 12.58 ug/m3 0.13 mg/m3 17.44 C 83.7 % 6.31 m/s 341.95 Deg 0.01 ug/m3
2021-05-20 21:00 0.71 ug/m3 0.06 ug/m3 92.41 ug/m3 29.35 ug/m3 13.55 ug/m3 0.13 mg/m3 17.39 C 82.37 % 8.06 m/s 323.36 Deg 0.01 ug/m3
2021-05-20 20:00 4.78 ug/m3 0.09 ug/m3 92.49 ug/m3 30.95 ug/m3 16.25 ug/m3 0.13 mg/m3 17.25 C 80.35 % 7.97 m/s 313.14 Deg 0.01 ug/m3
2021-05-20 19:00 4.44 ug/m3 0.11 ug/m3 95.38 ug/m3 24.95 ug/m3 13.33 ug/m3 0.13 mg/m3 17.37 C 79.65 % 8.27 m/s 308.89 Deg 0.07 ug/m3
2021-05-20 18:00 0.9 ug/m3 0.14 ug/m3 95.34 ug/m3 25 ug/m3 13.68 ug/m3 0.12 mg/m3 17.74 C 77.33 % 9.07 m/s 302.94 Deg 0.07 ug/m3
2021-05-20 17:00 1.83 ug/m3 0.2 ug/m3 100.93 ug/m3 27.88 ug/m3 11.43 ug/m3 0.12 mg/m3 18.2 C 73.69 % 9.09 m/s 303.57 Deg 0.2 ug/m3
2021-05-20 16:00 1.38 ug/m3 0.21 ug/m3 101.51 ug/m3 29.8 ug/m3 12.9 ug/m3 0.12 mg/m3 18.69 C 70.88 % 8.91 m/s 301.49 Deg 0.14 ug/m3
2021-05-20 15:00 1.07 ug/m3 0.2 ug/m3 101.16 ug/m3 29.53 ug/m3 11.75 ug/m3 0.13 mg/m3 18.66 C 72.66 % 9.22 m/s 301.31 Deg 0.1 ug/m3
2021-05-20 14:00 1.51 ug/m3 0.23 ug/m3 100.17 ug/m3 34.25 ug/m3 12.83 ug/m3 0.13 mg/m3 18.72 C 73.93 % 9.1 m/s 304.23 Deg 0.2 ug/m3
2021-05-20 13:00 0.92 ug/m3 0.21 ug/m3 101.99 ug/m3 28.33 ug/m3 12.65 ug/m3 0.13 mg/m3 18.64 C 72.96 % 9.44 m/s 307.06 Deg 0.06 ug/m3
2021-05-20 12:00 1.06 ug/m3 0.23 ug/m3 103.97 ug/m3 34.8 ug/m3 14.58 ug/m3 0.13 mg/m3 18.68 C 68.85 % 8.9 m/s 308.16 Deg 0.06 ug/m3
2021-05-20 11:00 1.58 ug/m3 0.26 ug/m3 102.65 ug/m3 37.88 ug/m3 14.1 ug/m3 0.13 mg/m3 18.46 C 68.77 % 9.46 m/s 316.29 Deg 0.16 ug/m3
2021-05-20 10:00 1.57 ug/m3 0.24 ug/m3 98.65 ug/m3 35.8 ug/m3 13.25 ug/m3 0.13 mg/m3 18.42 C 66.41 % 9.93 m/s 321.31 Deg 0.2 ug/m3
2021-05-20 09:00 1.68 ug/m3 0.27 ug/m3 95.29 ug/m3 29.85 ug/m3 11.15 ug/m3 0.13 mg/m3 18.08 C 74.89 % 9.07 m/s 317.39 Deg 0.23 ug/m3
2021-05-20 08:00 2.42 ug/m3 0.16 ug/m3 92.39 ug/m3 27.13 ug/m3 8.03 ug/m3 0.13 mg/m3 17.74 C 79.82 % 8.02 m/s 305.41 Deg 0.37 ug/m3
2021-05-20 07:00 1.47 ug/m3 0.19 ug/m3 92.74 ug/m3 22.68 ug/m3 8.7 ug/m3 0.12 mg/m3 17.54 C 73.67 % 7.18 m/s 295.49 Deg 0.13 ug/m3
2021-05-20 06:00 2.56 ug/m3 0.15 ug/m3 91.54 ug/m3 25.73 ug/m3 11.15 ug/m3 0.13 mg/m3 17.52 C 74.49 % 6.07 m/s 296.82 Deg 0.05 ug/m3
2021-05-20 05:00 3.43 ug/m3 0.18 ug/m3 88.33 ug/m3 27.65 ug/m3 13.6 ug/m3 0.12 mg/m3 17.65 C 80.93 % 6.41 m/s 300.57 Deg 0.02 ug/m3
2021-05-20 04:00 1.81 ug/m3 0.15 ug/m3 89.85 ug/m3 24.8 ug/m3 13.75 ug/m3 0.13 mg/m3 17.72 C 86.15 % 6.62 m/s 299.62 Deg 0.01 ug/m3
2021-05-20 03:00 2.98 ug/m3 0.18 ug/m3 85.36 ug/m3 24.55 ug/m3 11.58 ug/m3 0.13 mg/m3 17.77 C 87.63 % 5.95 m/s 302.3 Deg 0.02 ug/m3
2021-05-20 02:00 1.69 ug/m3 0.14 ug/m3 87.53 ug/m3 23.3 ug/m3 12.18 ug/m3 0.12 mg/m3 17.78 C 87.03 % 5.78 m/s 297.11 Deg 0.01 ug/m3
2021-05-20 01:00 1.89 ug/m3 0.13 ug/m3 89.64 ug/m3 21.9 ug/m3 7.7 ug/m3 0.14 mg/m3 17.93 C 85.45 % 4.23 m/s 282.67 Deg 0.01 ug/m3
2021-05-20 00:00 1.56 ug/m3 0.14 ug/m3 94.15 ug/m3 22.73 ug/m3 9.95 ug/m3 0.14 mg/m3 18.03 C 83.5 % 4.39 m/s 295.64 Deg 0.02 ug/m3
2021-05-19 23:00 1.01 ug/m3 0.15 ug/m3 94.02 ug/m3 21.43 ug/m3 9.58 ug/m3 0.13 mg/m3 18.48 C 80.11 % 4.2 m/s 296.69 Deg 0 ug/m3
2021-05-19 22:00 2.65 ug/m3 0.21 ug/m3 96.08 ug/m3 24.35 ug/m3 11.98 ug/m3 0.13 mg/m3 18.76 C 74.87 % 4.16 m/s 286.18 Deg 0.01 ug/m3
2021-05-19 21:00 2.11 ug/m3 0.16 ug/m3 98.07 ug/m3 22.28 ug/m3 13.28 ug/m3 0.13 mg/m3 18.7 C 74.3 % 3.78 m/s 281.81 Deg 0.01 ug/m3
2021-05-19 20:00 5.26 ug/m3 0.29 ug/m3 99.23 ug/m3 21.95 ug/m3 15.2 ug/m3 0.13 mg/m3 18.71 C 75.56 % 3.43 m/s 288 Deg 0.01 ug/m3
2021-05-19 19:00 1.44 ug/m3 0.14 ug/m3 105.79 ug/m3 23.63 ug/m3 15.35 ug/m3 0.14 mg/m3 18.85 C 78.02 % 3.73 m/s 284.21 Deg 0.04 ug/m3
2021-05-19 18:00 4.65 ug/m3 0.44 ug/m3 113.42 ug/m3 23.13 ug/m3 15.65 ug/m3 0.13 mg/m3 19.42 C 76.99 % 4.07 m/s 311.84 Deg 0.34 ug/m3
2021-05-19 17:00 1.62 ug/m3 0.54 ug/m3 120.74 ug/m3 23.93 ug/m3 14.75 ug/m3 0.14 mg/m3 19.68 C 73.17 % 4.83 m/s 320.33 Deg 0.12 ug/m3
2021-05-19 16:00 2.94 ug/m3 0.51 ug/m3 108.35 ug/m3 23.55 ug/m3 13.35 ug/m3 0.14 mg/m3 19.6 C 76.2 % 4.79 m/s 315.92 Deg 0.4 ug/m3
2021-05-19 15:00 1.25 ug/m3 0.39 ug/m3 110.56 ug/m3 27.03 ug/m3 14 ug/m3 0.13 mg/m3 19.26 C 80.45 % 4.92 m/s 318.99 Deg 0.12 ug/m3
2021-05-19 14:00 3.24 ug/m3 0.35 ug/m3 105.86 ug/m3 46.6 ug/m3 12.63 ug/m3 0.13 mg/m3 19.25 C 78.37 % 4.92 m/s 321.85 Deg 0.55 ug/m3
2021-05-19 13:00 4.93 ug/m3 0.35 ug/m3 98.43 ug/m3 32.7 ug/m3 12.6 ug/m3 0.13 mg/m3 19.37 C 75.24 % 5.6 m/s 330.91 Deg 1.05 ug/m3
2021-05-19 12:00 1.17 ug/m3 0.34 ug/m3 100.7 ug/m3 22.2 ug/m3 13.78 ug/m3 0.13 mg/m3 19.4 C 74.23 % 5.85 m/s 320.2 Deg 0.14 ug/m3
2021-05-19 11:00 4.1 ug/m3 0.46 ug/m3 93.6 ug/m3 18.13 ug/m3 14.63 ug/m3 0.14 mg/m3 18.98 C 79.46 % 4.83 m/s 321.31 Deg 0.88 ug/m3
2021-05-19 10:00 4.59 ug/m3 0.25 ug/m3 90.09 ug/m3 23.95 ug/m3 11.13 ug/m3 0.14 mg/m3 18.63 C 83.17 % 5.12 m/s 319.46 Deg 1.2 ug/m3
2021-05-19 09:00 2.48 ug/m3 0.23 ug/m3 89.92 ug/m3 22.53 ug/m3 10.65 ug/m3 0.13 mg/m3 18.5 C 81.16 % 5.15 m/s 313.28 Deg 0.48 ug/m3
2021-05-19 08:00 2.1 ug/m3 0.21 ug/m3 86.15 ug/m3 19.58 ug/m3 8.43 ug/m3 0.14 mg/m3 18.18 C 83.56 % 4.46 m/s 302.46 Deg 0.33 ug/m3
2021-05-19 07:00 4.75 ug/m3 0.24 ug/m3 79.94 ug/m3 16 ug/m3 8.8 ug/m3 0.14 mg/m3 17.5 C 87.96 % 4.43 m/s 269.32 Deg 0.56 ug/m3
2021-05-19 06:00 2.36 ug/m3 0.16 ug/m3 80.6 ug/m3 20.1 ug/m3 9.65 ug/m3 0.14 mg/m3 17.07 C 89.08 % 4.32 m/s 274.41 Deg 0.07 ug/m3
2021-05-19 05:00 1.24 ug/m3 0.16 ug/m3 81.06 ug/m3 21.05 ug/m3 8 ug/m3 0.14 mg/m3 16.99 C 88.49 % 3.81 m/s 272.84 Deg 0.02 ug/m3
2021-05-19 04:00 4.93 ug/m3 0.22 ug/m3 72.62 ug/m3 18.25 ug/m3 9.8 ug/m3 0.14 mg/m3 16.97 C 90.43 % 2.92 m/s 275.12 Deg 0.02 ug/m3
2021-05-19 03:00 4.81 ug/m3 0.23 ug/m3 71.72 ug/m3 19.13 ug/m3 11.88 ug/m3 0.13 mg/m3 17.01 C 90.73 % 2.7 m/s 302.17 Deg 0.01 ug/m3
2021-05-19 02:00 6.28 ug/m3 0.26 ug/m3 69.96 ug/m3 23.3 ug/m3 10.65 ug/m3 0.13 mg/m3 17.14 C 88.85 % 2.68 m/s 288.56 Deg 0.02 ug/m3
2021-05-19 01:00 8.58 ug/m3 0.3 ug/m3 70.12 ug/m3 22.5 ug/m3 9.4 ug/m3 0.15 mg/m3 17.39 C 89.74 % 2.64 m/s 267.44 Deg 0.02 ug/m3
2021-05-19 00:00 10.18 ug/m3 0.3 ug/m3 69.71 ug/m3 21.8 ug/m3 8.9 ug/m3 0.14 mg/m3 17.32 C 88.08 % 1.41 m/s 260.27 Deg 0.02 ug/m3
2021-05-18 23:00 3.93 ug/m3 0.13 ug/m3 83.27 ug/m3 19.18 ug/m3 10.85 ug/m3 0.14 mg/m3 17.59 C 84.79 % 1.94 m/s 290.88 Deg 0.01 ug/m3
2021-05-18 22:00 4.4 ug/m3 0.2 ug/m3 86.87 ug/m3 18.23 ug/m3 9.03 ug/m3 0.14 mg/m3 17.9 C 81.94 % 2.51 m/s 303.91 Deg 0.01 ug/m3
2021-05-18 21:00 4.57 ug/m3 0.24 ug/m3 89.28 ug/m3 19.63 ug/m3 9.85 ug/m3 0.14 mg/m3 18.04 C 81.73 % 2.34 m/s 276.11 Deg 0.01 ug/m3
2021-05-18 20:00 3.9 ug/m3 0.23 ug/m3 98.49 ug/m3 21.98 ug/m3 11.9 ug/m3 0.14 mg/m3 18.4 C 80.61 % 2.99 m/s 264.2 Deg 0.01 ug/m3
2021-05-18 19:00 2.76 ug/m3 0.38 ug/m3 111.25 ug/m3 14.05 ug/m3 14.2 ug/m3 0.14 mg/m3 18.79 C 83.86 % 2.84 m/s 227.31 Deg 0.05 ug/m3
2021-05-18 18:00 4.06 ug/m3 0.69 ug/m3 111.41 ug/m3 16.6 ug/m3 12.85 ug/m3 0.13 mg/m3 19.71 C 75.99 % 3.29 m/s 240.31 Deg 0.25 ug/m3
2021-05-18 17:00 3.9 ug/m3 1.06 ug/m3 111.59 ug/m3 16.23 ug/m3 15.88 ug/m3 0.13 mg/m3 21 C 60.83 % 3.19 m/s 295.28 Deg 0.4 ug/m3
2021-05-18 16:00 6.36 ug/m3 1.17 ug/m3 103.62 ug/m3 20.53 ug/m3 15.9 ug/m3 0.13 mg/m3 20.72 C 67.28 % 3.34 m/s 300.84 Deg 1 ug/m3
2021-05-18 15:00 6.35 ug/m3 0.57 ug/m3 100.42 ug/m3 23.93 ug/m3 13.55 ug/m3 0.13 mg/m3 19.72 C 77.03 % 3.55 m/s 311.51 Deg 1.31 ug/m3

It is to be noted that the data is provisional and subject to quality assurance procedures. For validated data kindly refer your request to contact.air@era.org.mt